| time (UTC) | temp F | wind direction | speed MPH | gust MPH | rain 1hr in | rain 24hr in | rain mn in | humidity % | barometer mb |
| 20260506102351 | 74 | 204 | 4.0 | 8.0 | 0.00 | 0.00 | 0.00 | 87 | 1007.6 |
| 20260506102258 | 74 | 200 | 4.0 | 8.0 | 0.00 | 0.00 | 0.00 | 87 | 1007.5 |
| 20260506102202 | 74 | 204 | 4.0 | 9.0 | 0.00 | 0.00 | 0.00 | 87 | 1007.5 |
| 20260506102105 | 74 | 225 | 3.0 | 9.0 | 0.00 | 0.00 | 0.00 | 87 | 1007.6 |
| 20260506101948 | 74 | 192 | 3.0 | 10.0 | 0.00 | 0.00 | 0.00 | 87 | 1007.5 |
| 20260506101852 | 74 | 189 | 4.0 | 10.0 | 0.00 | 0.00 | 0.00 | 86 | 1007.5 |
| 20260506101815 | 74 | 211 | 5.0 | 10.0 | 0.00 | 0.00 | 0.00 | 87 | 1007.5 |
| 20260506101701 | 74 | 225 | 5.0 | 10.0 | 0.00 | 0.00 | 0.00 | 86 | 1007.5 |
| 20260506101605 | 74 | 201 | 5.0 | 10.0 | 0.00 | 0.00 | 0.00 | 86 | 1007.5 |
| 20260506101448 | 74 | 206 | 4.0 | 12.0 | 0.00 | 0.00 | 0.00 | 86 | 1007.4 |
| 20260506101351 | 74 | 221 | 5.0 | 12.0 | 0.00 | 0.00 | 0.00 | 86 | 1007.4 |
| 20260506101255 | 74 | 210 | 6.0 | 12.0 | 0.00 | 0.00 | 0.00 | 86 | 1007.4 |
| 20260506101219 | 74 | 240 | 7.0 | 14.0 | 0.00 | 0.00 | 0.00 | 86 | 1007.4 |
| 20260506101100 | 74 | 185 | 6.0 | 14.0 | 0.00 | 0.00 | 0.00 | 86 | 1007.4 |
| 20260506101004 | 74 | 186 | 6.0 | 14.0 | 0.00 | 0.00 | 0.00 | 86 | 1007.4 |
| 20260506100852 | 74 | 217 | 6.0 | 14.0 | 0.00 | 0.00 | 0.00 | 86 | 1007.4 |
| 20260506100755 | 74 | 200 | 7.0 | 14.0 | 0.00 | 0.00 | 0.00 | 86 | 1007.4 |
| 20260506100720 | 74 | 207 | 8.0 | 14.0 | 0.00 | 0.00 | 0.00 | 86 | 1007.4 |
| 20260506100602 | 74 | 223 | 8.0 | 14.0 | 0.00 | 0.00 | 0.00 | 86 | 1007.4 |
| 20260506100506 | 74 | 221 | 8.0 | 14.0 | 0.00 | 0.00 | 0.00 | 86 | 1007.3 |
| 20260506100429 | 74 | 188 | 7.0 | 14.0 | 0.00 | 0.00 | 0.00 | 86 | 1007.5 |
| 20260506100256 | 74 | 198 | 7.0 | 14.0 | 0.00 | 0.00 | 0.00 | 86 | 1007.4 |
| 20260506100159 | 74 | 212 | 7.0 | 14.0 | 0.00 | 0.00 | 0.00 | 86 | 1007.5 |
| 20260506100005 | 74 | 193 | 7.0 | 14.0 | 0.00 | 0.00 | 0.00 | 86 | 1007.5 |
| 20260506095850 | 74 | 231 | 6.0 | 14.0 | 0.00 | 0.00 | 0.00 | 86 | 1007.4 |
| 20260506095753 | 74 | 212 | 6.0 | 11.0 | 0.00 | 0.00 | 0.00 | 86 | 1007.4 |
| 20260506095701 | 74 | 215 | 6.0 | 11.0 | 0.00 | 0.00 | 0.00 | 86 | 1007.4 |
| 20260506095605 | 74 | 229 | 6.0 | 13.0 | 0.00 | 0.00 | 0.00 | 86 | 1007.4 |
| 20260506095510 | 74 | 187 | 6.0 | 13.0 | 0.00 | 0.00 | 0.00 | 86 | 1007.3 |
| 20260506095352 | 74 | 206 | 6.0 | 13.0 | 0.00 | 0.00 | 0.00 | 86 | 1007.3 |
| 20260506095256 | 74 | 205 | 6.0 | 13.0 | 0.00 | 0.00 | 0.00 | 86 | 1007.3 |
| 20260506095218 | 74 | 201 | 5.0 | 13.0 | 0.00 | 0.00 | 0.00 | 86 | 1007.2 |
| 20260506095101 | 74 | 204 | 6.0 | 13.0 | 0.00 | 0.00 | 0.00 | 86 | 1007.3 |
| 20260506094949 | 74 | 192 | 7.0 | 13.0 | 0.00 | 0.00 | 0.00 | 86 | 1007.3 |
| 20260506094854 | 74 | 182 | 7.0 | 15.0 | 0.00 | 0.00 | 0.00 | 86 | 1007.3 |
| 20260506094758 | 74 | 215 | 8.0 | 15.0 | 0.00 | 0.00 | 0.00 | 86 | 1007.2 |
| 20260506094702 | 74 | 228 | 8.0 | 15.0 | 0.00 | 0.00 | 0.00 | 86 | 1007.3 |
| 20260506094606 | 74 | 180 | 7.0 | 15.0 | 0.00 | 0.00 | 0.00 | 86 | 1007.3 |
| 20260506094452 | 74 | 215 | 6.0 | 15.0 | 0.00 | 0.00 | 0.00 | 86 | 1007.3 |
| 20260506094355 | 74 | 186 | 7.0 | 15.0 | 0.00 | 0.00 | 0.00 | 86 | 1007.3 |
| 20260506094259 | 74 | 200 | 7.0 | 15.0 | 0.00 | 0.00 | 0.00 | 86 | 1007.2 |
| 20260506094203 | 74 | 188 | 7.0 | 15.0 | 0.00 | 0.00 | 0.00 | 86 | 1007.2 |
| 20260506094106 | 74 | 185 | 5.0 | 15.0 | 0.00 | 0.00 | 0.00 | 86 | 1007.3 |
| 20260506093951 | 74 | 205 | 5.0 | 10.0 | 0.00 | 0.00 | 0.00 | 86 | 1007.3 |
| 20260506093854 | 74 | 229 | 5.0 | 10.0 | 0.00 | 0.00 | 0.00 | 86 | 1007.2 |
| 20260506093801 | 74 | 214 | 5.0 | 11.0 | 0.00 | 0.00 | 0.00 | 86 | 1007.2 |
| 20260506093706 | 74 | 217 | 5.0 | 11.0 | 0.00 | 0.00 | 0.00 | 86 | 1007.1 |
| 20260506093629 | 74 | 193 | 6.0 | 11.0 | 0.00 | 0.00 | 0.00 | 86 | 1007.2 |
| 20260506093511 | 74 | 205 | 6.0 | 11.0 | 0.00 | 0.00 | 0.00 | 86 | 1007.1 |
| 20260506093353 | 74 | 195 | 5.0 | 11.0 | 0.00 | 0.00 | 0.00 | 86 | 1007.1 |
| 20260506093256 | 74 | 215 | 6.0 | 11.0 | 0.00 | 0.00 | 0.00 | 86 | 1007.2 |
| 20260506093200 | 74 | 184 | 6.0 | 11.0 | 0.00 | 0.00 | 0.00 | 86 | 1007.1 |
| 20260506093107 | 74 | 219 | 7.0 | 11.0 | 0.00 | 0.00 | 0.00 | 86 | 1007.0 |
| 20260506092950 | 74 | 198 | 6.0 | 11.0 | 0.00 | 0.00 | 0.00 | 86 | 1007.1 |
| 20260506092854 | 74 | 218 | 6.0 | 11.0 | 0.00 | 0.00 | 0.00 | 86 | 1007.1 |
| 20260506092817 | 74 | 209 | 6.0 | 11.0 | 0.00 | 0.00 | 0.00 | 86 | 1007.0 |
| 20260506092659 | 74 | 196 | 6.0 | 12.0 | 0.00 | 0.00 | 0.00 | 86 | 1007.0 |
| 20260506092603 | 74 | 238 | 6.0 | 12.0 | 0.00 | 0.00 | 0.00 | 86 | 1007.1 |
| 20260506092526 | 74 | 204 | 6.0 | 13.0 | 0.00 | 0.00 | 0.00 | 86 | 1007.0 |
| 20260506092413 | 74 | 209 | 6.0 | 14.0 | 0.00 | 0.00 | 0.00 | 86 | 1007.0 |
| 20260506092249 | 74 | 207 | 6.0 | 14.0 | 0.00 | 0.00 | 0.00 | 86 | 1007.0 |
| 20260506092213 | 74 | 215 | 6.0 | 14.0 | 0.00 | 0.00 | 0.00 | 86 | 1007.0 |
| 20260506092049 | 74 | 209 | 7.0 | 14.0 | 0.00 | 0.00 | 0.00 | 86 | 1007.0 |
| 20260506091953 | 74 | 211 | 7.0 | 14.0 | 0.00 | 0.00 | 0.00 | 86 | 1007.0 |
| 20260506091857 | 74 | 221 | 7.0 | 14.0 | 0.00 | 0.00 | 0.00 | 86 | 1007.0 |
| 20260506091804 | 74 | 174 | 7.0 | 14.0 | 0.00 | 0.00 | 0.00 | 86 | 1007.0 |
| 20260506091648 | 74 | 191 | 8.0 | 14.0 | 0.00 | 0.00 | 0.00 | 86 | 1007.0 |
| 20260506091612 | 74 | 204 | 8.0 | 14.0 | 0.00 | 0.00 | 0.00 | 86 | 1007.0 |
| 20260506091454 | 74 | 192 | 8.0 | 13.0 | 0.00 | 0.00 | 0.00 | 86 | 1007.0 |
| 20260506091358 | 74 | 228 | 6.0 | 13.0 | 0.00 | 0.00 | 0.00 | 86 | 1007.0 |
| 20260506091301 | 74 | 214 | 7.0 | 13.0 | 0.00 | 0.00 | 0.00 | 86 | 1007.0 |
| 20260506091149 | 74 | 171 | 7.0 | 13.0 | 0.00 | 0.00 | 0.00 | 86 | 1007.0 |
| 20260506091052 | 74 | 184 | 7.0 | 14.0 | 0.00 | 0.00 | 0.00 | 86 | 1007.0 |
| 20260506090956 | 74 | 192 | 6.0 | 13.0 | 0.00 | 0.00 | 0.00 | 86 | 1006.9 |
| 20260506090858 | 74 | 219 | 5.0 | 13.0 | 0.00 | 0.00 | 0.00 | 86 | 1006.8 |
| 20260506090801 | 74 | 207 | 5.0 | 13.0 | 0.00 | 0.00 | 0.00 | 86 | 1006.9 |
| 20260506090706 | 74 | 190 | 5.0 | 13.0 | 0.00 | 0.00 | 0.00 | 86 | 1006.9 |
| 20260506090628 | 74 | 173 | 6.0 | 13.0 | 0.00 | 0.00 | 0.00 | 86 | 1006.9 |
| 20260506090455 | 74 | 186 | 7.0 | 13.0 | 0.00 | 0.00 | 0.00 | 86 | 1006.8 |
| 20260506090359 | 74 | 223 | 7.0 | 13.0 | 0.00 | 0.00 | 0.00 | 86 | 1006.9 |
| 20260506090323 | 74 | 225 | 7.0 | 14.0 | 0.00 | 0.00 | 0.00 | 86 | 1006.9 |
| 20260506090205 | 74 | 220 | 7.0 | 14.0 | 0.00 | 0.00 | 0.00 | 86 | 1006.8 |
| 20260506090050 | 74 | 211 | 7.0 | 14.0 | 0.00 | 0.00 | 0.00 | 86 | 1006.9 |
| 20260506085953 | 74 | 175 | 7.0 | 14.0 | 0.00 | 0.00 | 0.00 | 86 | 1006.9 |
| 20260506085856 | 74 | 198 | 8.0 | 14.0 | 0.00 | 0.00 | 0.00 | 86 | 1006.8 |
| 20260506085824 | 74 | 196 | 7.0 | 14.0 | 0.00 | 0.00 | 0.00 | 86 | 1006.9 |
| 20260506085707 | 74 | 207 | 6.0 | 14.0 | 0.00 | 0.00 | 0.00 | 86 | 1006.9 |
| 20260506085550 | 74 | 178 | 7.0 | 14.0 | 0.00 | 0.00 | 0.00 | 86 | 1007.0 |
| 20260506085453 | 74 | 184 | 8.0 | 14.0 | 0.00 | 0.00 | 0.00 | 86 | 1006.9 |
| 20260506085356 | 74 | 205 | 8.0 | 14.0 | 0.00 | 0.00 | 0.00 | 86 | 1006.9 |
| 20260506085300 | 74 | 178 | 7.0 | 14.0 | 0.00 | 0.00 | 0.00 | 86 | 1006.9 |
| 20260506085203 | 74 | 198 | 6.0 | 14.0 | 0.00 | 0.00 | 0.00 | 86 | 1006.8 |
| 20260506085051 | 74 | 215 | 7.0 | 14.0 | 0.00 | 0.00 | 0.00 | 86 | 1006.8 |
| 20260506084955 | 74 | 217 | 7.0 | 13.0 | 0.00 | 0.00 | 0.00 | 86 | 1006.9 |
| 20260506084857 | 74 | 202 | 7.0 | 12.0 | 0.00 | 0.00 | 0.00 | 86 | 1006.9 |
| 20260506084801 | 74 | 221 | 6.0 | 11.0 | 0.00 | 0.00 | 0.00 | 86 | 1006.8 |
| 20260506084704 | 74 | 180 | 8.0 | 11.0 | 0.00 | 0.00 | 0.00 | 86 | 1006.8 |
| 20260506084548 | 74 | 231 | 8.0 | 12.0 | 0.00 | 0.00 | 0.00 | 86 | 1006.8 |
| 20260506084455 | 74 | 221 | 6.0 | 12.0 | 0.00 | 0.00 | 0.00 | 86 | 1006.8 |
| 20260506084359 | 74 | 184 | 5.0 | 11.0 | 0.00 | 0.00 | 0.00 | 86 | 1006.7 |
| 20260506084303 | 74 | 220 | 5.0 | 11.0 | 0.00 | 0.00 | 0.00 | 86 | 1006.8 |
| 20260506084206 | 74 | 201 | 5.0 | 11.0 | 0.00 | 0.00 | 0.00 | 86 | 1006.9 |
| 20260506084050 | 74 | 227 | 5.0 | 11.0 | 0.00 | 0.00 | 0.00 | 86 | 1006.9 |
| 20260506084013 | 74 | 168 | 5.0 | 11.0 | 0.00 | 0.00 | 0.00 | 86 | 1006.9 |
| 20260506083900 | 74 | 197 | 5.0 | 11.0 | 0.00 | 0.00 | 0.00 | 86 | 1007.0 |
| 20260506083805 | 74 | 200 | 6.0 | 11.0 | 0.00 | 0.00 | 0.00 | 86 | 1007.0 |
| 20260506083648 | 74 | 184 | 6.0 | 12.0 | 0.00 | 0.00 | 0.00 | 86 | 1007.0 |
| 20260506083552 | 74 | 199 | 5.0 | 12.0 | 0.00 | 0.00 | 0.00 | 86 | 1007.0 |
| 20260506083515 | 74 | 213 | 5.0 | 16.0 | 0.00 | 0.00 | 0.00 | 86 | 1006.9 |
| 20260506083357 | 74 | 205 | 5.0 | 16.0 | 0.00 | 0.00 | 0.00 | 86 | 1006.9 |
| 20260506083301 | 74 | 193 | 5.0 | 16.0 | 0.00 | 0.00 | 0.00 | 86 | 1006.9 |
| 20260506083228 | 74 | 193 | 6.0 | 16.0 | 0.00 | 0.00 | 0.00 | 86 | 1006.8 |
| 20260506083111 | 74 | 215 | 6.0 | 16.0 | 0.00 | 0.00 | 0.00 | 86 | 1007.0 |
| 20260506083013 | 74 | 188 | 6.0 | 16.0 | 0.00 | 0.00 | 0.00 | 86 | 1006.9 |
| 20260506082856 | 74 | 197 | 8.0 | 16.0 | 0.00 | 0.00 | 0.00 | 86 | 1006.8 |
| 20260506082759 | 74 | 222 | 9.0 | 16.0 | 0.00 | 0.00 | 0.00 | 86 | 1006.8 |
| 20260506082703 | 74 | 207 | 8.0 | 16.0 | 0.00 | 0.00 | 0.00 | 86 | 1006.7 |
| 20260506082606 | 74 | 226 | 7.0 | 16.0 | 0.00 | 0.00 | 0.00 | 86 | 1006.8 |
| 20260506082454 | 74 | 184 | 8.0 | 16.0 | 0.00 | 0.00 | 0.00 | 86 | 1006.9 |
| 20260506082417 | 74 | 193 | 8.0 | 16.0 | 0.00 | 0.00 | 0.00 | 86 | 1006.8 |
| 20260506082300 | 74 | 209 | 6.0 | 16.0 | 0.00 | 0.00 | 0.00 | 86 | 1006.9 |
| 20260506082203 | 74 | 218 | 7.0 | 16.0 | 0.00 | 0.00 | 0.00 | 86 | 1006.9 |
| 20260506082107 | 74 | 175 | 7.0 | 16.0 | 0.00 | 0.00 | 0.00 | 86 | 1006.9 |
| 20260506081952 | 74 | 172 | 7.0 | 16.0 | 0.00 | 0.00 | 0.00 | 86 | 1006.9 |
| 20260506081855 | 74 | 167 | 8.0 | 16.0 | 0.00 | 0.00 | 0.00 | 86 | 1006.9 |
| 20260506081823 | 74 | 207 | 7.0 | 14.0 | 0.00 | 0.00 | 0.00 | 86 | 1007.0 |
| 20260506081704 | 74 | 175 | 5.0 | 12.0 | 0.00 | 0.00 | 0.00 | 86 | 1006.9 |
| 20260506081549 | 74 | 194 | 5.0 | 18.0 | 0.00 | 0.00 | 0.00 | 86 | 1006.9 |
| 20260506081512 | 74 | 195 | 6.0 | 18.0 | 0.00 | 0.00 | 0.00 | 86 | 1006.9 |
| 20260506081435 | 74 | 196 | 5.0 | 18.0 | 0.00 | 0.00 | 0.00 | 86 | 1006.9 |
| 20260506081251 | 74 | 175 | 5.0 | 18.0 | 0.00 | 0.00 | 0.00 | 86 | 1007.0 |
| 20260506081155 | 74 | 180 | 5.0 | 18.0 | 0.00 | 0.00 | 0.00 | 86 | 1007.0 |
| 20260506081102 | 74 | 200 | 6.0 | 18.0 | 0.00 | 0.00 | 0.00 | 86 | 1007.0 |
| 20260506081006 | 74 | 180 | 6.0 | 18.0 | 0.00 | 0.00 | 0.00 | 86 | 1006.9 |
| 20260506080910 | 74 | 202 | 7.0 | 18.0 | 0.00 | 0.00 | 0.00 | 86 | 1007.0 |
| 20260506080753 | 74 | 186 | 7.0 | 17.0 | 0.00 | 0.00 | 0.00 | 86 | 1007.0 |
| 20260506080658 | 74 | 213 | 5.0 | 15.0 | 0.00 | 0.00 | 0.00 | 86 | 1007.0 |
| 20260506080600 | 74 | 194 | 6.0 | 15.0 | 0.00 | 0.00 | 0.00 | 86 | 1007.0 |
| 20260506080448 | 74 | 193 | 6.0 | 15.0 | 0.00 | 0.00 | 0.00 | 86 | 1006.9 |
| 20260506080352 | 74 | 202 | 5.0 | 16.0 | 0.00 | 0.00 | 0.00 | 86 | 1006.9 |
| 20260506080255 | 74 | 196 | 6.0 | 16.0 | 0.00 | 0.00 | 0.00 | 86 | 1007.0 |
| 20260506080217 | 74 | 204 | 5.0 | 16.0 | 0.00 | 0.00 | 0.00 | 86 | 1007.0 |
| 20260506073513 | 74 | 207 | 9.0 | 15.0 | 0.00 | 0.00 | 0.00 | 86 | 1007.2 |
| 20260506073349 | 74 | 200 | 8.0 | 15.0 | 0.00 | 0.00 | 0.00 | 86 | 1007.3 |
| 20260506073253 | 74 | 212 | 7.0 | 16.0 | 0.00 | 0.00 | 0.00 | 86 | 1007.3 |
| 20260506073156 | 74 | 217 | 7.0 | 15.0 | 0.00 | 0.00 | 0.00 | 86 | 1007.3 |
| 20260506073100 | 74 | 182 | 8.0 | 15.0 | 0.00 | 0.00 | 0.00 | 86 | 1007.3 |
| 20260506073003 | 74 | 184 | 7.0 | 15.0 | 0.00 | 0.00 | 0.00 | 86 | 1007.4 |
| 20260506072852 | 74 | 210 | 6.0 | 15.0 | 0.00 | 0.00 | 0.00 | 86 | 1007.4 |
| 20260506072755 | 74 | 200 | 7.0 | 15.0 | 0.00 | 0.00 | 0.00 | 86 | 1007.4 |
| 20260506072718 | 74 | 240 | 8.0 | 15.0 | 0.00 | 0.00 | 0.00 | 86 | 1007.5 |
| 20260506072620 | 74 | 208 | 8.0 | 20.0 | 0.00 | 0.00 | 0.00 | 86 | 1007.4 |
| 20260506072502 | 74 | 208 | 7.0 | 20.0 | 0.00 | 0.00 | 0.00 | 86 | 1007.4 |
| 20260506072406 | 74 | 208 | 7.0 | 20.0 | 0.00 | 0.00 | 0.00 | 86 | 1007.4 |
| 20260506072254 | 74 | 194 | 7.0 | 20.0 | 0.00 | 0.00 | 0.00 | 86 | 1007.5 |
| 20260506072158 | 74 | 190 | 6.0 | 20.0 | 0.00 | 0.00 | 0.00 | 86 | 1007.4 |
| 20260506072122 | 74 | 182 | 5.0 | 20.0 | 0.00 | 0.00 | 0.00 | 86 | 1007.5 |
| 20260506072004 | 74 | 198 | 7.0 | 20.0 | 0.00 | 0.00 | 0.00 | 86 | 1007.4 |
| 20260506071908 | 74 | 213 | 9.0 | 20.0 | 0.00 | 0.00 | 0.00 | 86 | 1007.4 |
| 20260506071811 | 74 | 213 | 9.0 | 20.0 | 0.00 | 0.00 | 0.00 | 85 | 1007.4 |
| 20260506071653 | 74 | 233 | 8.0 | 18.0 | 0.00 | 0.00 | 0.00 | 85 | 1007.4 |
| 20260506071601 | 74 | 175 | 9.0 | 18.0 | 0.00 | 0.00 | 0.00 | 85 | 1007.5 |
| 20260506071505 | 74 | 223 | 9.0 | 18.0 | 0.00 | 0.00 | 0.00 | 85 | 1007.5 |
| 20260506071349 | 74 | 208 | 8.0 | 18.0 | 0.00 | 0.00 | 0.00 | 85 | 1007.5 |
| 20260506071251 | 74 | 205 | 8.0 | 18.0 | 0.00 | 0.00 | 0.00 | 85 | 1007.5 |
| 20260506071215 | 74 | 197 | 7.0 | 18.0 | 0.00 | 0.00 | 0.00 | 85 | 1007.5 |
| 20260506071057 | 74 | 196 | 7.0 | 18.0 | 0.00 | 0.00 | 0.00 | 85 | 1007.5 |
| 20260506071001 | 74 | 200 | 7.0 | 17.0 | 0.00 | 0.00 | 0.00 | 85 | 1007.5 |
| 20260506070909 | 74 | 193 | 6.0 | 17.0 | 0.00 | 0.00 | 0.00 | 85 | 1007.5 |
| 20260506070811 | 74 | 195 | 6.0 | 17.0 | 0.00 | 0.00 | 0.00 | 85 | 1007.5 |
| 20260506070654 | 74 | 182 | 9.0 | 17.0 | 0.00 | 0.00 | 0.00 | 85 | 1007.5 |
| 20260506070556 | 74 | 209 | 9.0 | 17.0 | 0.00 | 0.00 | 0.00 | 85 | 1007.5 |
| 20260506070459 | 74 | 194 | 7.0 | 16.0 | 0.00 | 0.00 | 0.00 | 85 | 1007.5 |
| 20260506070403 | 74 | 221 | 6.0 | 17.0 | 0.00 | 0.00 | 0.00 | 85 | 1007.6 |
| 20260506070250 | 74 | 200 | 6.0 | 17.0 | 0.00 | 0.00 | 0.00 | 85 | 1007.6 |
| 20260506070214 | 74 | 176 | 7.0 | 20.0 | 0.00 | 0.00 | 0.00 | 85 | 1007.6 |
| 20260506062348 | 74 | 193 | 10.0 | 24.0 | 0.00 | 0.00 | 0.00 | 85 | 1007.5 |
| 20260506062311 | 74 | 205 | 9.0 | 21.0 | 0.00 | 0.00 | 0.00 | 85 | 1007.5 |
| 20260506062153 | 74 | 192 | 8.0 | 21.0 | 0.00 | 0.00 | 0.00 | 85 | 1007.4 |
| 20260506062102 | 74 | 204 | 8.0 | 21.0 | 0.00 | 0.00 | 0.00 | 85 | 1007.5 |
| 20260506062005 | 74 | 189 | 7.0 | 21.0 | 0.00 | 0.00 | 0.00 | 85 | 1007.4 |
| 20260506061849 | 74 | 171 | 8.0 | 21.0 | 0.00 | 0.00 | 0.00 | 85 | 1007.5 |
| 20260506061813 | 75 | 171 | 8.0 | 21.0 | 0.00 | 0.00 | 0.00 | 85 | 1007.5 |
| 20260506061649 | 74 | 163 | 7.0 | 15.0 | 0.00 | 0.00 | 0.00 | 85 | 1007.6 |
| 20260506061612 | 74 | 225 | 6.0 | 15.0 | 0.00 | 0.00 | 0.00 | 85 | 1007.6 |
| 20260506061455 | 74 | 219 | 5.0 | 23.0 | 0.00 | 0.00 | 0.00 | 85 | 1007.5 |
| 20260506061403 | 74 | 153 | 5.0 | 23.0 | 0.00 | 0.00 | 0.00 | 85 | 1007.5 |
| 20260506061249 | 74 | 182 | 5.0 | 23.0 | 0.00 | 0.00 | 0.00 | 85 | 1007.5 |
| 20260506061151 | 74 | 198 | 6.0 | 23.0 | 0.00 | 0.00 | 0.00 | 85 | 1007.5 |
| 20260506061055 | 74 | 210 | 8.0 | 23.0 | 0.00 | 0.00 | 0.00 | 85 | 1007.5 |
| 20260506060958 | 74 | 192 | 8.0 | 23.0 | 0.00 | 0.00 | 0.00 | 85 | 1007.4 |
| 20260506060902 | 75 | 205 | 7.0 | 23.0 | 0.00 | 0.00 | 0.00 | 85 | 1007.4 |
| 20260506060750 | 75 | 221 | 10.0 | 23.0 | 0.00 | 0.00 | 0.00 | 85 | 1007.4 |
| 20260506060714 | 75 | 190 | 11.0 | 23.0 | 0.00 | 0.00 | 0.00 | 85 | 1007.4 |
| 20260506060555 | 74 | 223 | 10.0 | 22.0 | 0.00 | 0.00 | 0.00 | 85 | 1007.4 |
| 20260506060457 | 75 | 189 | 9.0 | 16.0 | 0.00 | 0.00 | 0.00 | 85 | 1007.4 |
| 20260506060421 | 74 | 219 | 7.0 | 16.0 | 0.00 | 0.00 | 0.00 | 85 | 1007.4 |
| 20260506060323 | 75 | 211 | 6.0 | 14.0 | 0.00 | 0.00 | 0.00 | 85 | 1007.4 |
| 20260506060206 | 75 | 182 | 6.0 | 17.0 | 0.00 | 0.00 | 0.00 | 85 | 1007.3 |
| 20260506051410 | 75 | 187 | 5.0 | 15.0 | 0.00 | 0.00 | 0.00 | 84 | 1007.6 |
| 20260506051312 | 75 | 190 | 5.0 | 15.0 | 0.00 | 0.00 | 0.00 | 84 | 1007.6 |
| 20260506051155 | 75 | 155 | 7.0 | 15.0 | 0.00 | 0.00 | 0.00 | 84 | 1007.6 |
| 20260506051059 | 75 | 206 | 7.0 | 15.0 | 0.00 | 0.00 | 0.00 | 84 | 1007.6 |
| 20260506051002 | 75 | 194 | 7.0 | 15.0 | 0.00 | 0.00 | 0.00 | 84 | 1007.6 |
| 20260506050906 | 75 | 203 | 6.0 | 15.0 | 0.00 | 0.00 | 0.00 | 84 | 1007.6 |
| 20260506050753 | 75 | 215 | 6.0 | 15.0 | 0.00 | 0.00 | 0.00 | 84 | 1007.6 |
| 20260506050657 | 75 | 171 | 8.0 | 15.0 | 0.00 | 0.00 | 0.00 | 84 | 1007.6 |
| 20260506050559 | 75 | 167 | 8.0 | 22.0 | 0.00 | 0.00 | 0.00 | 84 | 1007.6 |
| 20260506050504 | 75 | 186 | 7.0 | 22.0 | 0.00 | 0.00 | 0.00 | 83 | 1007.5 |
| 20260506050409 | 75 | 163 | 8.0 | 22.0 | 0.00 | 0.00 | 0.00 | 83 | 1007.6 |
| 20260506050252 | 75 | 188 | 8.0 | 22.0 | 0.00 | 0.00 | 0.00 | 83 | 1007.6 |
| 20260506050157 | 75 | 189 | 7.0 | 22.0 | 0.00 | 0.00 | 0.00 | 83 | 1007.6 |
| 20260506045128 | 75 | 189 | 9.0 | 22.0 | 0.00 | 0.00 | 0.00 | 83 | 1007.6 |
| 20260506044950 | 75 | 189 | 7.0 | 22.0 | 0.00 | 0.00 | 0.00 | 83 | 1007.5 |
| 20260506044855 | 75 | 217 | 8.0 | 22.0 | 0.00 | 0.00 | 0.00 | 83 | 1007.5 |
| 20260506044818 | 75 | 180 | 8.0 | 22.0 | 0.00 | 0.00 | 0.00 | 83 | 1007.5 |
| 20260506044704 | 75 | 207 | 8.0 | 22.0 | 0.00 | 0.00 | 0.00 | 83 | 1007.5 |
| 20260506044548 | 75 | 182 | 7.0 | 22.0 | 0.00 | 0.00 | 0.00 | 83 | 1007.5 |
| 20260506044451 | 75 | 200 | 10.0 | 22.0 | 0.00 | 0.00 | 0.00 | 83 | 1007.5 |
| 20260506044355 | 75 | 180 | 11.0 | 22.0 | 0.00 | 0.00 | 0.00 | 83 | 1007.5 |
| 20260506044258 | 75 | 236 | 11.0 | 22.0 | 0.00 | 0.00 | 0.00 | 83 | 1007.5 |
| 20260506044202 | 75 | 180 | 12.0 | 22.0 | 0.00 | 0.00 | 0.00 | 83 | 1007.5 |
| 20260506044109 | 75 | 224 | 10.0 | 23.0 | 0.00 | 0.00 | 0.00 | 83 | 1007.5 |
| 20260506043952 | 75 | 172 | 10.0 | 19.0 | 0.00 | 0.00 | 0.00 | 83 | 1007.5 |
| 20260506043915 | 75 | 196 | 9.0 | 18.0 | 0.00 | 0.00 | 0.00 | 83 | 1007.5 |
| 20260506043758 | 75 | 183 | 9.0 | 18.0 | 0.00 | 0.00 | 0.00 | 83 | 1007.6 |
| 20260506043723 | 75 | 209 | 8.0 | 18.0 | 0.00 | 0.00 | 0.00 | 84 | 1007.6 |
| 20260506043625 | 75 | 215 | 10.0 | 18.0 | 0.00 | 0.00 | 0.00 | 83 | 1007.5 |
| 20260506043527 | 76 | 190 | 10.0 | 18.0 | 0.00 | 0.00 | 0.00 | 84 | 1007.6 |
| 20260506043350 | 75 | 164 | 6.0 | 16.0 | 0.00 | 0.00 | 0.00 | 84 | 1007.6 |
| 20260506043317 | 76 | 161 | 5.0 | 14.0 | 0.00 | 0.00 | 0.00 | 84 | 1007.6 |
| 20260506043200 | 76 | 203 | 7.0 | 14.0 | 0.00 | 0.00 | 0.00 | 84 | 1007.7 |
| 20260506043104 | 76 | 174 | 6.0 | 14.0 | 0.00 | 0.00 | 0.00 | 84 | 1007.7 |
| 20260506043007 | 76 | 163 | 6.0 | 14.0 | 0.00 | 0.00 | 0.00 | 84 | 1007.7 |
| 20260506042851 | 76 | 189 | 6.0 | 14.0 | 0.00 | 0.00 | 0.00 | 84 | 1007.7 |
| 20260506042754 | 76 | 159 | 6.0 | 14.0 | 0.00 | 0.00 | 0.00 | 84 | 1007.7 |
| 20260506042703 | 76 | 175 | 6.0 | 14.0 | 0.00 | 0.00 | 0.00 | 84 | 1007.7 |
| 20260506042606 | 76 | 160 | 7.0 | 14.0 | 0.00 | 0.00 | 0.00 | 84 | 1007.6 |
| 20260506042450 | 76 | 178 | 7.0 | 17.0 | 0.00 | 0.00 | 0.00 | 84 | 1007.6 |
| 20260506042413 | 76 | 184 | 7.0 | 17.0 | 0.00 | 0.00 | 0.00 | 84 | 1007.6 |
| 20260506042249 | 76 | 155 | 5.0 | 17.0 | 0.00 | 0.00 | 0.00 | 84 | 1007.6 |
| 20260506042153 | 76 | 195 | 6.0 | 17.0 | 0.00 | 0.00 | 0.00 | 84 | 1007.6 |
| 20260506042116 | 76 | 180 | 6.0 | 17.0 | 0.00 | 0.00 | 0.00 | 84 | 1007.5 |
| 20260506042003 | 76 | 181 | 7.0 | 17.0 | 0.00 | 0.00 | 0.00 | 84 | 1007.6 |
| 20260506041907 | 76 | 159 | 8.0 | 17.0 | 0.00 | 0.00 | 0.00 | 84 | 1007.6 |
| 20260506041751 | 76 | 192 | 8.0 | 17.0 | 0.00 | 0.00 | 0.00 | 84 | 1007.5 |
| 20260506041655 | 76 | 166 | 8.0 | 17.0 | 0.00 | 0.00 | 0.00 | 84 | 1007.5 |
| 20260506041556 | 76 | 173 | 8.0 | 19.0 | 0.00 | 0.00 | 0.00 | 84 | 1007.5 |
| 20260506041500 | 76 | 192 | 8.0 | 19.0 | 0.00 | 0.00 | 0.00 | 84 | 1007.5 |
| 20260506041407 | 76 | 185 | 8.0 | 19.0 | 0.00 | 0.00 | 0.00 | 84 | 1007.5 |
| 20260506041251 | 76 | 153 | 8.0 | 17.0 | 0.00 | 0.00 | 0.00 | 84 | 1007.5 |
| 20260506041154 | 76 | 162 | 7.0 | 14.0 | 0.00 | 0.00 | 0.00 | 84 | 1007.5 |
| 20260506041058 | 76 | 188 | 6.0 | 14.0 | 0.00 | 0.00 | 0.00 | 84 | 1007.5 |
| 20260506041000 | 76 | 169 | 6.0 | 16.0 | 0.00 | 0.00 | 0.00 | 84 | 1007.5 |
| 20260506040904 | 76 | 174 | 5.0 | 16.0 | 0.00 | 0.00 | 0.00 | 84 | 1007.5 |
| 20260506040827 | 76 | 167 | 4.0 | 16.0 | 0.00 | 0.00 | 0.00 | 84 | 1007.5 |
| 20260506040656 | 76 | 196 | 6.0 | 16.0 | 0.00 | 0.00 | 0.00 | 84 | 1007.5 |
| 20260506040618 | 76 | 201 | 6.0 | 16.0 | 0.00 | 0.00 | 0.00 | 84 | 1007.5 |
| 20260506040501 | 76 | 182 | 6.0 | 16.0 | 0.00 | 0.00 | 0.00 | 84 | 1007.5 |
| 20260506040405 | 76 | 149 | 5.0 | 16.0 | 0.00 | 0.00 | 0.00 | 84 | 1007.5 |
| 20260506040249 | 76 | 183 | 6.0 | 16.0 | 0.00 | 0.00 | 0.00 | 84 | 1007.5 |
| 20260506040152 | 76 | 192 | 7.0 | 16.0 | 0.00 | 0.00 | 0.00 | 84 | 1007.5 |
| 20260506040055 | 76 | 150 | 7.0 | 15.0 | 0.00 | 0.00 | 0.00 | 84 | 1007.5 |
| 20260506040024 | 76 | 158 | 6.0 | 15.0 | 0.00 | 0.00 | 0.00 | 83 | 1007.5 |
| 20260506035905 | 76 | 188 | 7.0 | 15.0 | 0.00 | 0.00 | 0.00 | 83 | 1007.4 |
| 20260506035749 | 76 | 155 | 9.0 | 15.0 | 0.00 | 0.00 | 0.00 | 83 | 1007.4 |
| 20260506035651 | 76 | 165 | 8.0 | 15.0 | 0.00 | 0.00 | 0.00 | 83 | 1007.4 |
| 20260506035555 | 76 | 151 | 6.0 | 14.0 | 0.00 | 0.00 | 0.00 | 83 | 1007.4 |
| 20260506035458 | 76 | 146 | 5.0 | 12.0 | 0.00 | 0.00 | 0.00 | 83 | 1007.3 |
| 20260506035403 | 76 | 165 | 6.0 | 12.0 | 0.00 | 0.00 | 0.00 | 83 | 1007.4 |
| 20260506035250 | 76 | 166 | 6.0 | 12.0 | 0.00 | 0.00 | 0.00 | 83 | 1007.3 |
| 20260506035213 | 76 | 175 | 6.0 | 12.0 | 0.00 | 0.00 | 0.00 | 83 | 1007.3 |
| 20260506035049 | 76 | 160 | 6.0 | 14.0 | 0.00 | 0.00 | 0.00 | 83 | 1007.3 |
| 20260506035013 | 76 | 151 | 5.0 | 14.0 | 0.00 | 0.00 | 0.00 | 83 | 1007.3 |
| 20260506034916 | 76 | 165 | 5.0 | 14.0 | 0.00 | 0.00 | 0.00 | 83 | 1007.3 |
| 20260506034758 | 76 | 156 | 5.0 | 14.0 | 0.00 | 0.00 | 0.00 | 83 | 1007.3 |
| 20260506034702 | 76 | 152 | 5.0 | 14.0 | 0.00 | 0.00 | 0.00 | 83 | 1007.1 |
| 20260506034550 | 76 | 142 | 7.0 | 14.0 | 0.00 | 0.00 | 0.00 | 83 | 1007.2 |
| 20260506034513 | 76 | 130 | 7.0 | 13.0 | 0.00 | 0.00 | 0.00 | 83 | 1007.2 |
| 20260506034416 | 76 | 148 | 8.0 | 13.0 | 0.00 | 0.00 | 0.00 | 83 | 1007.2 |
| 20260506034259 | 76 | 171 | 7.0 | 13.0 | 0.00 | 0.00 | 0.00 | 83 | 1007.3 |
| 20260506034203 | 76 | 142 | 6.0 | 13.0 | 0.00 | 0.00 | 0.00 | 83 | 1007.2 |
| 20260506034126 | 76 | 157 | 6.0 | 13.0 | 0.00 | 0.00 | 0.00 | 83 | 1007.1 |
| 20260506033949 | 76 | 178 | 6.0 | 13.0 | 0.00 | 0.00 | 0.00 | 83 | 1007.1 |
| 20260506033857 | 76 | 154 | 7.0 | 13.0 | 0.00 | 0.00 | 0.00 | 83 | 1007.1 |
| 20260506033820 | 76 | 186 | 7.0 | 13.0 | 0.00 | 0.00 | 0.00 | 83 | 1007.1 |
| 20260506033705 | 76 | 173 | 7.0 | 13.0 | 0.00 | 0.00 | 0.00 | 83 | 1007.0 |
| 20260506033607 | 76 | 151 | 5.0 | 12.0 | 0.00 | 0.00 | 0.00 | 83 | 1007.1 |
| 20260506033451 | 76 | 151 | 5.0 | 12.0 | 0.00 | 0.00 | 0.00 | 83 | 1007.0 |
| 20260506033355 | 76 | 165 | 6.0 | 12.0 | 0.00 | 0.00 | 0.00 | 83 | 1007.0 |
| 20260506033303 | 76 | 150 | 6.0 | 13.0 | 0.00 | 0.00 | 0.00 | 83 | 1007.1 |
| 20260506033206 | 76 | 163 | 6.0 | 13.0 | 0.00 | 0.00 | 0.00 | 83 | 1007.0 |
| 20260506033110 | 76 | 148 | 6.0 | 13.0 | 0.00 | 0.00 | 0.00 | 83 | 1007.0 |
| 20260506032953 | 76 | 162 | 5.0 | 13.0 | 0.00 | 0.00 | 0.00 | 83 | 1007.0 |
| 20260506032856 | 76 | 135 | 4.0 | 13.0 | 0.00 | 0.00 | 0.00 | 83 | 1007.0 |
| 20260506032800 | 76 | 171 | 7.0 | 13.0 | 0.00 | 0.00 | 0.00 | 83 | 1006.9 |
| 20260506032703 | 76 | 146 | 7.0 | 13.0 | 0.00 | 0.00 | 0.00 | 83 | 1006.9 |
| 20260506032630 | 76 | 158 | 7.0 | 13.0 | 0.00 | 0.00 | 0.00 | 83 | 1006.9 |
| 20260506032534 | 76 | 175 | 6.0 | 13.0 | 0.00 | 0.00 | 0.00 | 83 | 1006.8 |
| 20260506032349 | 76 | 189 | 5.0 | 14.0 | 0.00 | 0.00 | 0.00 | 83 | 1006.9 |
| 20260506032312 | 76 | 150 | 5.0 | 14.0 | 0.00 | 0.00 | 0.00 | 83 | 1006.9 |
| 20260506032236 | 76 | 184 | 5.0 | 14.0 | 0.00 | 0.00 | 0.00 | 83 | 1006.9 |
| 20260506032051 | 76 | 162 | 5.0 | 14.0 | 0.00 | 0.00 | 0.00 | 83 | 1006.9 |
| 20260506031954 | 76 | 167 | 5.0 | 14.0 | 0.00 | 0.00 | 0.00 | 83 | 1006.9 |
| 20260506031903 | 76 | 166 | 6.0 | 11.0 | 0.00 | 0.00 | 0.00 | 83 | 1006.8 |
| 20260506031805 | 76 | 138 | 6.0 | 11.0 | 0.00 | 0.00 | 0.00 | 82 | 1006.8 |
| 20260506031650 | 76 | 144 | 7.0 | 11.0 | 0.00 | 0.00 | 0.00 | 82 | 1006.7 |
| 20260506031554 | 76 | 159 | 6.0 | 11.0 | 0.00 | 0.00 | 0.00 | 82 | 1006.7 |
| 20260506031457 | 76 | 153 | 5.0 | 11.0 | 0.00 | 0.00 | 0.00 | 82 | 1006.8 |
| 20260506031421 | 76 | 168 | 5.0 | 11.0 | 0.00 | 0.00 | 0.00 | 82 | 1006.8 |
| 20260506031303 | 76 | 149 | 5.0 | 11.0 | 0.00 | 0.00 | 0.00 | 82 | 1006.7 |
| 20260506031151 | 76 | 178 | 5.0 | 11.0 | 0.00 | 0.00 | 0.00 | 82 | 1006.7 |
| 20260506031054 | 76 | 175 | 4.0 | 11.0 | 0.00 | 0.00 | 0.00 | 82 | 1006.7 |
| 20260506030958 | 76 | 162 | 5.0 | 11.0 | 0.00 | 0.00 | 0.00 | 82 | 1006.7 |
| 20260506030922 | 76 | 141 | 4.0 | 11.0 | 0.00 | 0.00 | 0.00 | 82 | 1006.8 |
| 20260506030805 | 76 | 155 | 6.0 | 11.0 | 0.00 | 0.00 | 0.00 | 82 | 1006.7 |
| 20260506030649 | 76 | 141 | 7.0 | 11.0 | 0.00 | 0.00 | 0.00 | 82 | 1006.6 |
| 20260506030555 | 76 | 182 | 6.0 | 11.0 | 0.00 | 0.00 | 0.00 | 82 | 1006.6 |
| 20260506030459 | 76 | 161 | 5.0 | 12.0 | 0.00 | 0.00 | 0.00 | 82 | 1006.6 |
| 20260506030401 | 76 | 146 | 5.0 | 11.0 | 0.00 | 0.00 | 0.00 | 82 | 1006.5 |
| 20260506030305 | 76 | 166 | 5.0 | 11.0 | 0.00 | 0.00 | 0.00 | 82 | 1006.5 |
| 20260506030228 | 76 | 152 | 5.0 | 11.0 | 0.00 | 0.00 | 0.00 | 82 | 1006.5 |
| 20260506030110 | 76 | 147 | 5.0 | 11.0 | 0.00 | 0.00 | 0.00 | 82 | 1006.5 |
| 20260506030034 | 76 | 167 | 5.0 | 11.0 | 0.00 | 0.00 | 0.00 | 82 | 1006.5 |
| 20260506025849 | 76 | 152 | 4.0 | 11.0 | 0.00 | 0.00 | 0.00 | 81 | 1006.6 |
| 20260506025757 | 76 | 162 | 4.0 | 11.0 | 0.00 | 0.00 | 0.00 | 81 | 1006.6 |
| 20260506025701 | 76 | 157 | 5.0 | 11.0 | 0.00 | 0.00 | 0.00 | 81 | 1006.6 |
| 20260506025604 | 76 | 157 | 4.0 | 11.0 | 0.00 | 0.00 | 0.00 | 81 | 1006.5 |
| 20260506025507 | 76 | 143 | 3.0 | 9.0 | 0.00 | 0.00 | 0.00 | 81 | 1006.6 |
| 20260506025350 | 76 | 165 | 4.0 | 9.0 | 0.00 | 0.00 | 0.00 | 81 | 1006.6 |
| 20260506025313 | 76 | 156 | 5.0 | 10.0 | 0.00 | 0.00 | 0.00 | 81 | 1006.6 |
| 20260506025155 | 76 | 157 | 4.0 | 9.0 | 0.00 | 0.00 | 0.00 | 81 | 1006.5 |
| 20260506025122 | 77 | 144 | 4.0 | 9.0 | 0.00 | 0.00 | 0.00 | 81 | 1006.7 |
| 20260506025004 | 77 | 146 | 5.0 | 9.0 | 0.00 | 0.00 | 0.00 | 81 | 1006.5 |
| 20260506024848 | 77 | 175 | 4.0 | 11.0 | 0.00 | 0.00 | 0.00 | 81 | 1006.4 |
| 20260506024752 | 77 | 150 | 4.0 | 11.0 | 0.00 | 0.00 | 0.00 | 80 | 1006.4 |
| 20260506024656 | 77 | 168 | 4.0 | 11.0 | 0.00 | 0.00 | 0.00 | 80 | 1006.4 |
| 20260506024559 | 77 | 144 | 4.0 | 11.0 | 0.00 | 0.00 | 0.00 | 80 | 1006.4 |
| 20260506024504 | 77 | 150 | 5.0 | 11.0 | 0.00 | 0.00 | 0.00 | 80 | 1006.4 |
| 20260506024351 | 77 | 180 | 4.0 | 11.0 | 0.00 | 0.00 | 0.00 | 80 | 1006.3 |
| 20260506024254 | 77 | 153 | 5.0 | 11.0 | 0.00 | 0.00 | 0.00 | 80 | 1006.3 |
| 20260506024157 | 77 | 172 | 5.0 | 11.0 | 0.00 | 0.00 | 0.00 | 80 | 1006.4 |
| 20260506024101 | 77 | 168 | 5.0 | 11.0 | 0.00 | 0.00 | 0.00 | 80 | 1006.4 |
| 20260506024004 | 77 | 168 | 5.0 | 12.0 | 0.00 | 0.00 | 0.00 | 80 | 1006.3 |
| 20260506023853 | 77 | 141 | 5.0 | 11.0 | 0.00 | 0.00 | 0.00 | 79 | 1006.2 |
| 20260506023756 | 77 | 157 | 5.0 | 11.0 | 0.00 | 0.00 | 0.00 | 79 | 1006.2 |
| 20260506023701 | 77 | 173 | 5.0 | 11.0 | 0.00 | 0.00 | 0.00 | 79 | 1006.3 |
| 20260506023603 | 77 | 172 | 4.0 | 11.0 | 0.00 | 0.00 | 0.00 | 79 | 1006.2 |
| 20260506023506 | 77 | 176 | 5.0 | 11.0 | 0.00 | 0.00 | 0.00 | 79 | 1006.2 |
| 20260506023350 | 77 | 150 | 5.0 | 12.0 | 0.00 | 0.00 | 0.00 | 79 | 1006.2 |
| 20260506023314 | 77 | 160 | 5.0 | 12.0 | 0.00 | 0.00 | 0.00 | 79 | 1006.2 |
| 20260506023220 | 77 | 163 | 5.0 | 12.0 | 0.00 | 0.00 | 0.00 | 79 | 1006.2 |
| 20260506023123 | 77 | 172 | 5.0 | 12.0 | 0.00 | 0.00 | 0.00 | 79 | 1006.2 |
| 20260506023005 | 77 | 158 | 4.0 | 12.0 | 0.00 | 0.00 | 0.00 | 79 | 1006.2 |
| 20260506022848 | 77 | 185 | 5.0 | 12.0 | 0.00 | 0.00 | 0.00 | 79 | 1006.1 |
| 20260506022751 | 77 | 149 | 5.0 | 12.0 | 0.00 | 0.00 | 0.00 | 79 | 1006.0 |
| 20260506022655 | 77 | 171 | 4.0 | 12.0 | 0.00 | 0.00 | 0.00 | 78 | 1006.0 |
| 20260506022620 | 77 | 158 | 5.0 | 12.0 | 0.00 | 0.00 | 0.00 | 78 | 1006.1 |
| 20260506022522 | 77 | 158 | 6.0 | 12.0 | 0.00 | 0.00 | 0.00 | 78 | 1006.1 |
| 20260506022349 | 77 | 182 | 4.0 | 13.0 | 0.00 | 0.00 | 0.00 | 78 | 1006.0 |
| 20260506022251 | 77 | 156 | 4.0 | 11.0 | 0.00 | 0.00 | 0.00 | 78 | 1006.0 |
| 20260506022155 | 77 | 148 | 5.0 | 11.0 | 0.00 | 0.00 | 0.00 | 78 | 1006.0 |
| 20260506022058 | 77 | 153 | 5.0 | 11.0 | 0.00 | 0.00 | 0.00 | 78 | 1006.0 |
| 20260506022022 | 77 | 152 | 5.0 | 11.0 | 0.00 | 0.00 | 0.00 | 78 | 1006.0 |
| 20260506021904 | 77 | 197 | 5.0 | 13.0 | 0.00 | 0.00 | 0.00 | 78 | 1005.9 |
| 20260506021752 | 78 | 165 | 5.0 | 11.0 | 0.00 | 0.00 | 0.00 | 78 | 1005.9 |
| 20260506021655 | 77 | 167 | 5.0 | 11.0 | 0.00 | 0.00 | 0.00 | 78 | 1005.9 |
| 20260506021559 | 78 | 190 | 4.0 | 11.0 | 0.00 | 0.00 | 0.00 | 78 | 1005.9 |
| 20260506021503 | 78 | 146 | 4.0 | 11.0 | 0.00 | 0.00 | 0.00 | 78 | 1005.8 |
| 20260506021406 | 78 | 190 | 5.0 | 11.0 | 0.00 | 0.00 | 0.00 | 78 | 1005.8 |
| 20260506021310 | 78 | 153 | 5.0 | 11.0 | 0.00 | 0.00 | 0.00 | 78 | 1005.7 |
| 20260506021212 | 78 | 157 | 5.0 | 11.0 | 0.00 | 0.00 | 0.00 | 78 | 1005.7 |
| 20260506021100 | 78 | 155 | 5.0 | 11.0 | 0.00 | 0.00 | 0.00 | 78 | 1005.7 |
| 20260506021003 | 78 | 162 | 4.0 | 11.0 | 0.00 | 0.00 | 0.00 | 77 | 1005.7 |
| 20260506020906 | 78 | 158 | 4.0 | 10.0 | 0.00 | 0.00 | 0.00 | 77 | 1005.7 |
| 20260506020811 | 78 | 150 | 4.0 | 10.0 | 0.00 | 0.00 | 0.00 | 77 | 1005.7 |
| 20260506020652 | 78 | 157 | 4.0 | 10.0 | 0.00 | 0.00 | 0.00 | 77 | 1005.7 |
| 20260506020555 | 78 | 161 | 4.0 | 10.0 | 0.00 | 0.00 | 0.00 | 77 | 1005.7 |
| 20260506020502 | 78 | 147 | 4.0 | 10.0 | 0.00 | 0.00 | 0.00 | 77 | 1005.6 |
| 20260506020405 | 78 | 149 | 5.0 | 10.0 | 0.00 | 0.00 | 0.00 | 77 | 1005.6 |
| 20260506020329 | 78 | 171 | 5.0 | 10.0 | 0.00 | 0.00 | 0.00 | 77 | 1005.7 |
| 20260506020152 | 78 | 159 | 5.0 | 10.0 | 0.00 | 0.00 | 0.00 | 77 | 1005.6 |
| 20260506020054 | 78 | 156 | 6.0 | 10.0 | 0.00 | 0.00 | 0.00 | 77 | 1005.6 |
| 20260506015959 | 78 | 155 | 5.0 | 10.0 | 0.00 | 0.00 | 0.00 | 77 | 1005.6 |
| 20260506015922 | 78 | 133 | 4.0 | 10.0 | 0.00 | 0.00 | 0.00 | 77 | 1005.5 |
| 20260506015825 | 78 | 156 | 4.0 | 10.0 | 0.00 | 0.00 | 0.00 | 77 | 1005.6 |
| 20260506015650 | 78 | 169 | 4.0 | 11.0 | 0.00 | 0.00 | 0.00 | 77 | 1005.6 |
| 20260506015554 | 78 | 159 | 5.0 | 11.0 | 0.00 | 0.00 | 0.00 | 76 | 1005.6 |
| 20260506015458 | 78 | 148 | 5.0 | 11.0 | 0.00 | 0.00 | 0.00 | 76 | 1005.6 |
| 20260506015401 | 78 | 158 | 5.0 | 11.0 | 0.00 | 0.00 | 0.00 | 76 | 1005.5 |
| 20260506015306 | 78 | 174 | 4.0 | 11.0 | 0.00 | 0.00 | 0.00 | 76 | 1005.6 |
| 20260506015152 | 78 | 151 | 5.0 | 11.0 | 0.00 | 0.00 | 0.00 | 76 | 1005.6 |
| 20260506015056 | 78 | 155 | 6.0 | 11.0 | 0.00 | 0.00 | 0.00 | 76 | 1005.5 |
| 20260506014959 | 79 | 148 | 5.0 | 11.0 | 0.00 | 0.00 | 0.00 | 76 | 1005.5 |
| 20260506014903 | 78 | 155 | 4.0 | 11.0 | 0.00 | 0.00 | 0.00 | 76 | 1005.5 |
| 20260506014806 | 78 | 150 | 4.0 | 11.0 | 0.00 | 0.00 | 0.00 | 76 | 1005.5 |
| 20260506014650 | 79 | 147 | 3.0 | 9.0 | 0.00 | 0.00 | 0.00 | 76 | 1005.5 |
| 20260506014615 | 79 | 139 | 3.0 | 8.0 | 0.00 | 0.00 | 0.00 | 76 | 1005.5 |
| 20260506014502 | 79 | 178 | 4.0 | 8.0 | 0.00 | 0.00 | 0.00 | 76 | 1005.5 |
| 20260506014426 | 79 | 141 | 4.0 | 9.0 | 0.00 | 0.00 | 0.00 | 76 | 1005.4 |
| 20260506014248 | 79 | 154 | 4.0 | 9.0 | 0.00 | 0.00 | 0.00 | 76 | 1005.4 |
| 20260506014211 | 79 | 169 | 3.0 | 9.0 | 0.00 | 0.00 | 0.00 | 76 | 1005.4 |
| 20260506014054 | 79 | 144 | 3.0 | 9.0 | 0.00 | 0.00 | 0.00 | 76 | 1005.4 |
| 20260506013957 | 79 | 144 | 3.0 | 9.0 | 0.00 | 0.00 | 0.00 | 76 | 1005.3 |
| 20260506013901 | 79 | 156 | 3.0 | 9.0 | 0.00 | 0.00 | 0.00 | 76 | 1005.4 |
| 20260506013749 | 79 | 150 | 4.0 | 9.0 | 0.00 | 0.00 | 0.00 | 76 | 1005.4 |
| 20260506013651 | 79 | 159 | 4.0 | 9.0 | 0.00 | 0.00 | 0.00 | 75 | 1005.3 |
| 20260506013553 | 79 | 159 | 4.0 | 8.0 | 0.00 | 0.00 | 0.00 | 75 | 1005.3 |
| 20260506013458 | 79 | 149 | 4.0 | 8.0 | 0.00 | 0.00 | 0.00 | 75 | 1005.4 |
| 20260506013401 | 79 | 141 | 4.0 | 8.0 | 0.00 | 0.00 | 0.00 | 75 | 1005.3 |
| 20260506013249 | 79 | 155 | 4.0 | 8.0 | 0.00 | 0.00 | 0.00 | 75 | 1005.4 |
| 20260506013213 | 79 | 148 | 4.0 | 8.0 | 0.00 | 0.00 | 0.00 | 75 | 1005.4 |
| 20260506013049 | 79 | 131 | 3.0 | 7.0 | 0.00 | 0.00 | 0.00 | 75 | 1005.3 |
| 20260506013014 | 79 | 146 | 3.0 | 8.0 | 0.00 | 0.00 | 0.00 | 75 | 1005.3 |
| 20260506012855 | 79 | 150 | 3.0 | 8.0 | 0.00 | 0.00 | 0.00 | 75 | 1005.3 |
| 20260506012800 | 79 | 144 | 3.0 | 8.0 | 0.00 | 0.00 | 0.00 | 75 | 1005.3 |
| 20260506012704 | 79 | 150 | 2.0 | 8.0 | 0.00 | 0.00 | 0.00 | 75 | 1005.3 |
| 20260506012552 | 79 | 150 | 3.0 | 8.0 | 0.00 | 0.00 | 0.00 | 75 | 1005.3 |
| 20260506012455 | 79 | 149 | 3.0 | 8.0 | 0.00 | 0.00 | 0.00 | 75 | 1005.3 |
| 20260506012359 | 79 | 158 | 2.0 | 8.0 | 0.00 | 0.00 | 0.00 | 75 | 1005.3 |
| 20260506012307 | 79 | 143 | 3.0 | 8.0 | 0.00 | 0.00 | 0.00 | 75 | 1005.3 |
| 20260506012206 | 79 | 148 | 3.0 | 8.0 | 0.00 | 0.00 | 0.00 | 75 | 1005.3 |
| 20260506012050 | 79 | 157 | 3.0 | 8.0 | 0.00 | 0.00 | 0.00 | 75 | 1005.4 |
| 20260506012018 | 80 | 160 | 3.0 | 8.0 | 0.00 | 0.00 | 0.00 | 75 | 1005.4 |
| 20260506011901 | 79 | 164 | 4.0 | 8.0 | 0.00 | 0.00 | 0.00 | 75 | 1005.4 |
| 20260506011804 | 80 | 146 | 4.0 | 8.0 | 0.00 | 0.00 | 0.00 | 75 | 1005.5 |
| 20260506011647 | 80 | 155 | 3.0 | 8.0 | 0.00 | 0.00 | 0.00 | 74 | 1005.6 |
| 20260506011552 | 80 | 149 | 4.0 | 8.0 | 0.00 | 0.00 | 0.00 | 74 | 1005.6 |
| 20260506011456 | 80 | 144 | 4.0 | 7.0 | 0.00 | 0.00 | 0.00 | 74 | 1005.5 |
| 20260506011403 | 80 | 151 | 4.0 | 7.0 | 0.00 | 0.00 | 0.00 | 74 | 1005.6 |
| 20260506011248 | 80 | 161 | 3.0 | 7.0 | 0.00 | 0.00 | 0.00 | 74 | 1005.7 |
| 20260506011153 | 80 | 155 | 4.0 | 7.0 | 0.00 | 0.00 | 0.00 | 74 | 1005.7 |
| 20260506011057 | 80 | 137 | 4.0 | 7.0 | 0.00 | 0.00 | 0.00 | 74 | 1005.7 |
| 20260506011000 | 80 | 167 | 4.0 | 7.0 | 0.00 | 0.00 | 0.00 | 74 | 1005.7 |
| 20260506010904 | 80 | 151 | 5.0 | 7.0 | 0.00 | 0.00 | 0.00 | 73 | 1005.8 |
| 20260506010752 | 80 | 163 | 5.0 | 7.0 | 0.00 | 0.00 | 0.00 | 73 | 1005.7 |
| 20260506010655 | 80 | 154 | 4.0 | 7.0 | 0.00 | 0.00 | 0.00 | 73 | 1005.7 |
| 20260506010558 | 80 | 164 | 3.0 | 7.0 | 0.00 | 0.00 | 0.00 | 73 | 1005.7 |
| 20260506010521 | 80 | 147 | 3.0 | 7.0 | 0.00 | 0.00 | 0.00 | 73 | 1005.6 |
| 20260506010404 | 80 | 167 | 3.0 | 7.0 | 0.00 | 0.00 | 0.00 | 73 | 1005.6 |
| 20260506010328 | 80 | 161 | 3.0 | 7.0 | 0.00 | 0.00 | 0.00 | 73 | 1005.6 |
| 20260506010150 | 80 | 180 | 4.0 | 7.0 | 0.00 | 0.00 | 0.00 | 73 | 1005.5 |
| 20260506010058 | 80 | 178 | 4.0 | 7.0 | 0.00 | 0.00 | 0.00 | 73 | 1005.5 |
| 20260506010021 | 80 | 158 | 3.0 | 7.0 | 0.00 | 0.00 | 0.00 | 73 | 1005.5 |
| 20260506005904 | 80 | 171 | 4.0 | 7.0 | 0.00 | 0.00 | 0.00 | 73 | 1005.4 |
| 20260506005748 | 80 | 146 | 3.0 | 7.0 | 0.00 | 0.00 | 0.00 | 73 | 1005.5 |
| 20260506005651 | 81 | 186 | 4.0 | 7.0 | 0.00 | 0.00 | 0.00 | 73 | 1005.6 |
| 20260506005555 | 81 | 157 | 4.0 | 7.0 | 0.00 | 0.00 | 0.00 | 72 | 1005.6 |
| 20260506005503 | 81 | 160 | 4.0 | 7.0 | 0.00 | 0.00 | 0.00 | 72 | 1005.5 |
| 20260506005406 | 81 | 153 | 3.0 | 7.0 | 0.00 | 0.00 | 0.00 | 72 | 1005.5 |
| 20260506005310 | 81 | 161 | 3.0 | 7.0 | 0.00 | 0.00 | 0.00 | 72 | 1005.5 |
| 20260506005152 | 81 | 159 | 3.0 | 7.0 | 0.00 | 0.00 | 0.00 | 72 | 1005.5 |
| 20260506005116 | 81 | 186 | 3.0 | 7.0 | 0.00 | 0.00 | 0.00 | 72 | 1005.5 |
| 20260506004957 | 81 | 175 | 3.0 | 7.0 | 0.00 | 0.00 | 0.00 | 72 | 1005.6 |
| 20260506004922 | 81 | 178 | 3.0 | 7.0 | 0.00 | 0.00 | 0.00 | 72 | 1005.6 |
| 20260506004804 | 81 | 141 | 2.0 | 7.0 | 0.00 | 0.00 | 0.00 | 72 | 1005.6 |
| 20260506004711 | 81 | 150 | 2.0 | 6.0 | 0.00 | 0.00 | 0.00 | 72 | 1005.5 |
| 20260506004636 | 81 | 152 | 2.0 | 6.0 | 0.00 | 0.00 | 0.00 | 72 | 1005.5 |
| 20260506004450 | 81 | 184 | 1.0 | 4.0 | 0.00 | 0.00 | 0.00 | 72 | 1005.5 |
| 20260506004414 | 81 | 184 | 0.0 | 7.0 | 0.00 | 0.00 | 0.00 | 72 | 1005.5 |
| 20260506004250 | 81 | 184 | 1.0 | 7.0 | 0.00 | 0.00 | 0.00 | 72 | 1005.4 |
| 20260506004154 | 81 | 184 | 2.0 | 7.0 | 0.00 | 0.00 | 0.00 | 72 | 1005.4 |
| 20260506004101 | 81 | 185 | 2.0 | 7.0 | 0.00 | 0.00 | 0.00 | 72 | 1005.5 |
| 20260506004005 | 81 | 185 | 2.0 | 7.0 | 0.00 | 0.00 | 0.00 | 72 | 1005.5 |
| 20260506003848 | 81 | 186 | 2.0 | 7.0 | 0.00 | 0.00 | 0.00 | 72 | 1005.4 |
| 20260506003752 | 81 | 186 | 3.0 | 7.0 | 0.00 | 0.00 | 0.00 | 72 | 1005.4 |
| 20260506003717 | 81 | 186 | 3.0 | 7.0 | 0.00 | 0.00 | 0.00 | 72 | 1005.4 |
| 20260506003558 | 81 | 187 | 3.0 | 8.0 | 0.00 | 0.00 | 0.00 | 72 | 1005.4 |
| 20260506003502 | 81 | 186 | 2.0 | 8.0 | 0.00 | 0.00 | 0.00 | 72 | 1005.3 |
| 20260506003349 | 81 | 186 | 4.0 | 8.0 | 0.00 | 0.00 | 0.00 | 72 | 1005.3 |
| 20260506003253 | 81 | 195 | 4.0 | 8.0 | 0.00 | 0.00 | 0.00 | 72 | 1005.3 |
| 20260506003156 | 81 | 184 | 4.0 | 8.0 | 0.00 | 0.00 | 0.00 | 72 | 1005.4 |
| 20260506003100 | 81 | 175 | 4.0 | 8.0 | 0.00 | 0.00 | 0.00 | 72 | 1005.3 |
| 20260506003004 | 81 | 184 | 4.0 | 8.0 | 0.00 | 0.00 | 0.00 | 71 | 1005.3 |
| 20260506002928 | 81 | 173 | 4.0 | 8.0 | 0.00 | 0.00 | 0.00 | 71 | 1005.2 |
| 20260506002753 | 81 | 194 | 5.0 | 8.0 | 0.00 | 0.00 | 0.00 | 71 | 1005.3 |
| 20260506002717 | 81 | 191 | 5.0 | 8.0 | 0.00 | 0.00 | 0.00 | 71 | 1005.3 |
| 20260506002619 | 81 | 178 | 4.0 | 8.0 | 0.00 | 0.00 | 0.00 | 71 | 1005.2 |
| 20260506002502 | 81 | 172 | 4.0 | 9.0 | 0.00 | 0.00 | 0.00 | 71 | 1005.3 |
| 20260506002405 | 81 | 180 | 4.0 | 8.0 | 0.00 | 0.00 | 0.00 | 71 | 1005.4 |
| 20260506002248 | 81 | 174 | 4.0 | 8.0 | 0.00 | 0.00 | 0.00 | 71 | 1005.4 |
| 20260506002152 | 81 | 174 | 2.0 | 8.0 | 0.00 | 0.00 | 0.00 | 71 | 1005.4 |
| 20260506002059 | 81 | 175 | 1.0 | 8.0 | 0.00 | 0.00 | 0.00 | 71 | 1005.4 |
| 20260506002024 | 81 | 180 | 2.0 | 8.0 | 0.00 | 0.00 | 0.00 | 71 | 1005.3 |
| 20260506001906 | 81 | 182 | 3.0 | 8.0 | 0.00 | 0.00 | 0.00 | 71 | 1005.4 |
| 20260506001810 | 81 | 182 | 4.0 | 8.0 | 0.00 | 0.00 | 0.00 | 70 | 1005.3 |
| 20260506001652 | 81 | 166 | 4.0 | 8.0 | 0.00 | 0.00 | 0.00 | 70 | 1005.3 |
| 20260506001556 | 81 | 191 | 4.0 | 9.0 | 0.00 | 0.00 | 0.00 | 70 | 1005.3 |
| 20260506001459 | 81 | 167 | 4.0 | 12.0 | 0.00 | 0.00 | 0.00 | 70 | 1005.3 |
| 20260506001407 | 81 | 171 | 4.0 | 12.0 | 0.00 | 0.00 | 0.00 | 70 | 1005.3 |
| 20260506001250 | 81 | 141 | 4.0 | 12.0 | 0.00 | 0.00 | 0.00 | 71 | 1005.3 |
| 20260506001154 | 81 | 168 | 3.0 | 12.0 | 0.00 | 0.00 | 0.00 | 70 | 1005.3 |
| 20260506001057 | 81 | 177 | 4.0 | 12.0 | 0.00 | 0.00 | 0.00 | 71 | 1005.3 |
| 20260506001001 | 81 | 187 | 4.0 | 12.0 | 0.00 | 0.00 | 0.00 | 71 | 1005.3 |
| 20260506000924 | 81 | 190 | 5.0 | 12.0 | 0.00 | 0.00 | 0.00 | 70 | 1005.3 |
| 20260506000751 | 81 | 193 | 6.0 | 12.0 | 0.00 | 0.00 | 0.00 | 70 | 1005.3 |
| 20260506000656 | 81 | 215 | 6.0 | 12.0 | 0.00 | 0.00 | 0.00 | 70 | 1005.3 |
| 20260506000558 | 81 | 186 | 6.0 | 10.0 | 0.00 | 0.00 | 0.00 | 70 | 1005.2 |
| 20260506000501 | 81 | 197 | 5.0 | 10.0 | 0.00 | 0.00 | 0.00 | 70 | 1005.1 |
| 20260506000405 | 81 | 217 | 5.0 | 10.0 | 0.00 | 0.00 | 0.00 | 70 | 1005.1 |
| 20260506000249 | 81 | 209 | 6.0 | 10.0 | 0.00 | 0.00 | 0.00 | 70 | 1005.1 |
| 20260506000157 | 81 | 193 | 4.0 | 11.0 | 0.00 | 0.00 | 0.00 | 70 | 1005.1 |
| 20260506000100 | 82 | 180 | 3.0 | 8.0 | 0.00 | 0.00 | 0.00 | 71 | 1005.1 |
| 20260506000003 | 82 | 193 | 3.0 | 10.0 | 0.00 | 0.00 | 0.00 | 71 | 1005.1 |
| 20260505235907 | 82 | 180 | 3.0 | 10.0 | 0.00 | 0.00 | 0.00 | 71 | 1005.2 |
| 20260505235810 | 81 | 142 | 3.0 | 10.0 | 0.00 | 0.00 | 0.00 | 71 | 1005.2 |
| 20260505235653 | 81 | 165 | 4.0 | 10.0 | 0.00 | 0.00 | 0.00 | 70 | 1005.2 |
| 20260505235600 | 81 | 181 | 4.0 | 10.0 | 0.00 | 0.00 | 0.00 | 70 | 1005.1 |
| 20260505235524 | 82 | 171 | 4.0 | 10.0 | 0.00 | 0.00 | 0.00 | 70 | 1005.1 |
| 20260505235406 | 82 | 149 | 4.0 | 10.0 | 0.00 | 0.00 | 0.00 | 70 | 1005.1 |
| 20260505235250 | 81 | 171 | 5.0 | 10.0 | 0.00 | 0.00 | 0.00 | 70 | 1005.0 |
| 20260505235154 | 82 | 190 | 5.0 | 10.0 | 0.00 | 0.00 | 0.00 | 70 | 1005.0 |
| 20260505235057 | 81 | 174 | 5.0 | 10.0 | 0.00 | 0.00 | 0.00 | 70 | 1005.0 |
| 20260505235001 | 82 | 178 | 5.0 | 10.0 | 0.00 | 0.00 | 0.00 | 70 | 1005.0 |
| 20260505234849 | 82 | 183 | 5.0 | 10.0 | 0.00 | 0.00 | 0.00 | 70 | 1004.9 |
| 20260505234812 | 82 | 190 | 4.0 | 10.0 | 0.00 | 0.00 | 0.00 | 70 | 1005.0 |
| 20260505234714 | 82 | 170 | 5.0 | 11.0 | 0.00 | 0.00 | 0.00 | 70 | 1005.0 |
| 20260505234551 | 82 | 172 | 5.0 | 11.0 | 0.00 | 0.00 | 0.00 | 70 | 1004.9 |
| 20260505234455 | 82 | 196 | 6.0 | 11.0 | 0.00 | 0.00 | 0.00 | 69 | 1004.9 |
| 20260505234358 | 82 | 194 | 5.0 | 12.0 | 0.00 | 0.00 | 0.00 | 69 | 1004.9 |
| 20260505234307 | 82 | 167 | 3.0 | 12.0 | 0.00 | 0.00 | 0.00 | 70 | 1004.9 |
| 20260505234151 | 82 | 184 | 5.0 | 12.0 | 0.00 | 0.00 | 0.00 | 70 | 1004.9 |
| 20260505234055 | 82 | 202 | 6.0 | 12.0 | 0.00 | 0.00 | 0.00 | 70 | 1004.9 |
| 20260505233958 | 82 | 189 | 6.0 | 12.0 | 0.00 | 0.00 | 0.00 | 70 | 1004.9 |
| 20260505233922 | 82 | 178 | 5.0 | 12.0 | 0.00 | 0.00 | 0.00 | 70 | 1005.0 |
| 20260505233805 | 81 | 198 | 5.0 | 12.0 | 0.00 | 0.00 | 0.00 | 70 | 1005.0 |
| 20260505233652 | 81 | 173 | 6.0 | 12.0 | 0.00 | 0.00 | 0.00 | 70 | 1005.0 |
| 20260505233554 | 81 | 178 | 6.0 | 12.0 | 0.00 | 0.00 | 0.00 | 70 | 1005.0 |
| 20260505233458 | 81 | 178 | 6.0 | 13.0 | 0.00 | 0.00 | 0.00 | 70 | 1005.0 |
| 20260505233402 | 81 | 174 | 5.0 | 11.0 | 0.00 | 0.00 | 0.00 | 70 | 1005.1 |
| 20260505233307 | 82 | 171 | 5.0 | 11.0 | 0.00 | 0.00 | 0.00 | 70 | 1005.1 |
| 20260505233150 | 82 | 180 | 6.0 | 11.0 | 0.00 | 0.00 | 0.00 | 69 | 1005.2 |
| 20260505233057 | 82 | 191 | 6.0 | 11.0 | 0.00 | 0.00 | 0.00 | 70 | 1005.2 |
| 20260505233021 | 82 | 199 | 6.0 | 10.0 | 0.00 | 0.00 | 0.00 | 70 | 1005.2 |
| 20260505232924 | 82 | 188 | 5.0 | 10.0 | 0.00 | 0.00 | 0.00 | 69 | 1005.1 |
| 20260505232807 | 82 | 172 | 5.0 | 11.0 | 0.00 | 0.00 | 0.00 | 70 | 1005.1 |
| 20260505232649 | 81 | 175 | 6.0 | 11.0 | 0.00 | 0.00 | 0.00 | 69 | 1005.0 |
| 20260505232553 | 81 | 170 | 6.0 | 11.0 | 0.00 | 0.00 | 0.00 | 70 | 1005.0 |
| 20260505232456 | 81 | 190 | 5.0 | 11.0 | 0.00 | 0.00 | 0.00 | 70 | 1005.1 |
| 20260505232400 | 81 | 167 | 5.0 | 11.0 | 0.00 | 0.00 | 0.00 | 70 | 1005.1 |
| 20260505232307 | 81 | 177 | 4.0 | 11.0 | 0.00 | 0.00 | 0.00 | 71 | 1005.2 |
| 20260505232212 | 81 | 196 | 5.0 | 11.0 | 0.00 | 0.00 | 0.00 | 70 | 1005.1 |
| 20260505232048 | 81 | 213 | 7.0 | 11.0 | 0.00 | 0.00 | 0.00 | 70 | 1005.1 |
| 20260505231952 | 82 | 206 | 7.0 | 11.0 | 0.00 | 0.00 | 0.00 | 70 | 1005.1 |
| 20260505231915 | 82 | 186 | 6.0 | 11.0 | 0.00 | 0.00 | 0.00 | 70 | 1005.1 |
| 20260505231758 | 82 | 170 | 4.0 | 13.0 | 0.00 | 0.00 | 0.00 | 70 | 1005.2 |
| 20260505231705 | 82 | 136 | 3.0 | 11.0 | 0.00 | 0.00 | 0.00 | 70 | 1005.1 |
| 20260505231549 | 81 | 225 | 5.0 | 11.0 | 0.00 | 0.00 | 0.00 | 70 | 1005.2 |
| 20260505231453 | 81 | 206 | 5.0 | 11.0 | 0.00 | 0.00 | 0.00 | 70 | 1005.2 |
| 20260505231358 | 82 | 200 | 5.0 | 11.0 | 0.00 | 0.00 | 0.00 | 69 | 1005.2 |
| 20260505231301 | 82 | 204 | 5.0 | 11.0 | 0.00 | 0.00 | 0.00 | 69 | 1005.1 |
| 20260505231205 | 82 | 200 | 5.0 | 11.0 | 0.00 | 0.00 | 0.00 | 70 | 1005.1 |
| 20260505231052 | 82 | 195 | 4.0 | 13.0 | 0.00 | 0.00 | 0.00 | 70 | 1005.1 |
| 20260505231016 | 82 | 186 | 6.0 | 12.0 | 0.00 | 0.00 | 0.00 | 69 | 1005.0 |
| 20260505230859 | 82 | 165 | 6.0 | 12.0 | 0.00 | 0.00 | 0.00 | 69 | 1005.0 |
| 20260505230802 | 82 | 201 | 5.0 | 11.0 | 0.00 | 0.00 | 0.00 | 69 | 1005.0 |
| 20260505230707 | 82 | 173 | 5.0 | 11.0 | 0.00 | 0.00 | 0.00 | 69 | 1005.2 |
| 20260505230550 | 82 | 198 | 3.0 | 11.0 | 0.00 | 0.00 | 0.00 | 70 | 1005.1 |
| 20260505230457 | 82 | 179 | 3.0 | 12.0 | 0.00 | 0.00 | 0.00 | 70 | 1005.1 |
| 20260505230401 | 82 | 204 | 4.0 | 12.0 | 0.00 | 0.00 | 0.00 | 70 | 1005.0 |
| 20260505230304 | 82 | 196 | 5.0 | 12.0 | 0.00 | 0.00 | 0.00 | 69 | 1005.1 |
| 20260505230148 | 82 | 194 | 4.0 | 12.0 | 0.00 | 0.00 | 0.00 | 69 | 1005.0 |
| 20260505230051 | 82 | 201 | 5.0 | 12.0 | 0.00 | 0.00 | 0.00 | 69 | 1005.0 |
| 20260505225955 | 82 | 184 | 6.0 | 12.0 | 0.00 | 0.00 | 0.00 | 69 | 1005.0 |
| 20260505225902 | 82 | 181 | 6.0 | 12.0 | 0.00 | 0.00 | 0.00 | 69 | 1005.0 |
| 20260505225806 | 82 | 217 | 7.0 | 13.0 | 0.00 | 0.00 | 0.00 | 69 | 1004.9 |
| 20260505225650 | 82 | 219 | 6.0 | 13.0 | 0.00 | 0.00 | 0.00 | 69 | 1004.9 |
| 20260505225613 | 82 | 205 | 5.0 | 13.0 | 0.00 | 0.00 | 0.00 | 69 | 1004.9 |
| 20260505225456 | 82 | 218 | 5.0 | 13.0 | 0.00 | 0.00 | 0.00 | 69 | 1005.0 |
| 20260505225419 | 82 | 211 | 6.0 | 15.0 | 0.00 | 0.00 | 0.00 | 69 | 1004.9 |
| 20260505225305 | 82 | 193 | 6.0 | 15.0 | 0.00 | 0.00 | 0.00 | 69 | 1004.9 |
| 20260505225210 | 82 | 198 | 7.0 | 15.0 | 0.00 | 0.00 | 0.00 | 69 | 1004.8 |
| 20260505225052 | 82 | 190 | 7.0 | 15.0 | 0.00 | 0.00 | 0.00 | 69 | 1004.8 |
| 20260505225016 | 82 | 208 | 6.0 | 15.0 | 0.00 | 0.00 | 0.00 | 68 | 1004.9 |
| 20260505224918 | 82 | 172 | 7.0 | 15.0 | 0.00 | 0.00 | 0.00 | 68 | 1004.9 |
| 20260505224801 | 82 | 191 | 8.0 | 15.0 | 0.00 | 0.00 | 0.00 | 68 | 1004.8 |
| 20260505224704 | 82 | 182 | 8.0 | 15.0 | 0.00 | 0.00 | 0.00 | 68 | 1004.8 |
| 20260505224608 | 82 | 182 | 6.0 | 15.0 | 0.00 | 0.00 | 0.00 | 68 | 1004.9 |
| 20260505224454 | 82 | 195 | 7.0 | 15.0 | 0.00 | 0.00 | 0.00 | 68 | 1004.9 |
| 20260505224358 | 82 | 190 | 8.0 | 15.0 | 0.00 | 0.00 | 0.00 | 68 | 1004.9 |
| 20260505224302 | 82 | 193 | 8.0 | 15.0 | 0.00 | 0.00 | 0.00 | 67 | 1004.9 |
| 20260505224206 | 82 | 186 | 6.0 | 13.0 | 0.00 | 0.00 | 0.00 | 68 | 1004.9 |
| 20260505224048 | 82 | 207 | 5.0 | 13.0 | 0.00 | 0.00 | 0.00 | 68 | 1004.9 |
| 20260505223951 | 82 | 196 | 5.0 | 13.0 | 0.00 | 0.00 | 0.00 | 68 | 1004.9 |
| 20260505223855 | 82 | 184 | 4.0 | 13.0 | 0.00 | 0.00 | 0.00 | 69 | 1004.8 |
| 20260505223802 | 82 | 200 | 5.0 | 13.0 | 0.00 | 0.00 | 0.00 | 69 | 1004.8 |
| 20260505223707 | 82 | 222 | 5.0 | 13.0 | 0.00 | 0.00 | 0.00 | 68 | 1004.8 |
| 20260505223549 | 82 | 194 | 6.0 | 16.0 | 0.00 | 0.00 | 0.00 | 68 | 1004.8 |
| 20260505223453 | 82 | 176 | 7.0 | 16.0 | 0.00 | 0.00 | 0.00 | 68 | 1004.8 |
| 20260505223416 | 82 | 176 | 7.0 | 16.0 | 0.00 | 0.00 | 0.00 | 68 | 1004.8 |
| 20260505223259 | 82 | 173 | 7.0 | 16.0 | 0.00 | 0.00 | 0.00 | 68 | 1004.8 |
| 20260505223206 | 82 | 162 | 6.0 | 16.0 | 0.00 | 0.00 | 0.00 | 68 | 1004.8 |
| 20260505223050 | 82 | 180 | 6.0 | 16.0 | 0.00 | 0.00 | 0.00 | 68 | 1004.8 |
| 20260505222953 | 82 | 182 | 6.0 | 16.0 | 0.00 | 0.00 | 0.00 | 68 | 1004.8 |
| 20260505222857 | 82 | 210 | 7.0 | 19.0 | 0.00 | 0.00 | 0.00 | 68 | 1004.8 |
| 20260505222800 | 82 | 200 | 8.0 | 19.0 | 0.00 | 0.00 | 0.00 | 68 | 1004.7 |
| 20260505222704 | 82 | 237 | 8.0 | 19.0 | 0.00 | 0.00 | 0.00 | 68 | 1004.8 |
| 20260505222551 | 82 | 159 | 7.0 | 19.0 | 0.00 | 0.00 | 0.00 | 68 | 1004.8 |
| 20260505222455 | 82 | 173 | 7.0 | 19.0 | 0.00 | 0.00 | 0.00 | 69 | 1004.8 |
| 20260505222358 | 82 | 163 | 7.0 | 19.0 | 0.00 | 0.00 | 0.00 | 69 | 1004.9 |
| 20260505222305 | 82 | 229 | 8.0 | 19.0 | 0.00 | 0.00 | 0.00 | 68 | 1004.8 |
| 20260505222207 | 82 | 211 | 9.0 | 19.0 | 0.00 | 0.00 | 0.00 | 67 | 1004.9 |
| 20260505222050 | 82 | 199 | 7.0 | 19.0 | 0.00 | 0.00 | 0.00 | 67 | 1005.0 |
| 20260505221957 | 83 | 188 | 5.0 | 14.0 | 0.00 | 0.00 | 0.00 | 68 | 1005.0 |
| 20260505221900 | 82 | 206 | 7.0 | 16.0 | 0.00 | 0.00 | 0.00 | 68 | 1004.9 |
| 20260505221804 | 82 | 161 | 8.0 | 16.0 | 0.00 | 0.00 | 0.00 | 67 | 1004.9 |
| 20260505221707 | 82 | 136 | 7.0 | 16.0 | 0.00 | 0.00 | 0.00 | 68 | 1004.9 |
| 20260505221551 | 82 | 176 | 7.0 | 16.0 | 0.00 | 0.00 | 0.00 | 68 | 1004.9 |
| 20260505221514 | 82 | 154 | 7.0 | 16.0 | 0.00 | 0.00 | 0.00 | 68 | 1004.9 |
| 20260505221356 | 82 | 153 | 7.0 | 16.0 | 0.00 | 0.00 | 0.00 | 68 | 1004.9 |
| 20260505221325 | 82 | 178 | 8.0 | 16.0 | 0.00 | 0.00 | 0.00 | 68 | 1004.9 |
| 20260505221148 | 82 | 181 | 8.0 | 16.0 | 0.00 | 0.00 | 0.00 | 69 | 1004.9 |
| 20260505221052 | 82 | 176 | 8.0 | 16.0 | 0.00 | 0.00 | 0.00 | 69 | 1004.9 |
| 20260505220955 | 82 | 205 | 6.0 | 15.0 | 0.00 | 0.00 | 0.00 | 68 | 1004.9 |
| 20260505220919 | 82 | 173 | 7.0 | 15.0 | 0.00 | 0.00 | 0.00 | 67 | 1004.9 |
| 20260505220804 | 82 | 188 | 9.0 | 15.0 | 0.00 | 0.00 | 0.00 | 67 | 1004.8 |
| 20260505220651 | 83 | 176 | 8.0 | 17.0 | 0.00 | 0.00 | 0.00 | 67 | 1004.9 |
| 20260505220614 | 83 | 161 | 6.0 | 16.0 | 0.00 | 0.00 | 0.00 | 67 | 1004.9 |
| 20260505220450 | 83 | 163 | 4.0 | 11.0 | 0.00 | 0.00 | 0.00 | 67 | 1004.9 |
| 20260505220354 | 83 | 177 | 4.0 | 11.0 | 0.00 | 0.00 | 0.00 | 67 | 1004.9 |
| 20260505220257 | 83 | 144 | 5.0 | 11.0 | 0.00 | 0.00 | 0.00 | 67 | 1005.0 |
| 20260505220201 | 83 | 194 | 5.0 | 11.0 | 0.00 | 0.00 | 0.00 | 67 | 1005.0 |
| 20260505220048 | 83 | 163 | 5.0 | 11.0 | 0.00 | 0.00 | 0.00 | 67 | 1005.0 |
| 20260505215952 | 83 | 134 | 6.0 | 13.0 | 0.00 | 0.00 | 0.00 | 67 | 1005.0 |
| 20260505215856 | 83 | 167 | 6.0 | 11.0 | 0.00 | 0.00 | 0.00 | 68 | 1004.9 |
| 20260505215800 | 83 | 189 | 7.0 | 14.0 | 0.00 | 0.00 | 0.00 | 68 | 1005.0 |
| 20260505215723 | 83 | 204 | 6.0 | 14.0 | 0.00 | 0.00 | 0.00 | 67 | 1005.0 |
| 20260505215605 | 83 | 178 | 6.0 | 16.0 | 0.00 | 0.00 | 0.00 | 67 | 1005.0 |
| 20260505215449 | 83 | 180 | 5.0 | 16.0 | 0.00 | 0.00 | 0.00 | 68 | 1005.1 |
| 20260505215357 | 82 | 190 | 3.0 | 19.0 | 0.00 | 0.00 | 0.00 | 68 | 1005.1 |
| 20260505215300 | 82 | 166 | 4.0 | 19.0 | 0.00 | 0.00 | 0.00 | 68 | 1005.1 |
| 20260505215203 | 82 | 196 | 5.0 | 19.0 | 0.00 | 0.00 | 0.00 | 68 | 1005.0 |
| 20260505215106 | 82 | 198 | 7.0 | 19.0 | 0.00 | 0.00 | 0.00 | 67 | 1005.0 |
| 20260505214949 | 82 | 183 | 9.0 | 19.0 | 0.00 | 0.00 | 0.00 | 67 | 1005.0 |
| 20260505214852 | 82 | 217 | 9.0 | 19.0 | 0.00 | 0.00 | 0.00 | 66 | 1005.0 |
| 20260505214800 | 82 | 171 | 10.0 | 19.0 | 0.00 | 0.00 | 0.00 | 67 | 1005.0 |
| 20260505214724 | 82 | 187 | 9.0 | 19.0 | 0.00 | 0.00 | 0.00 | 67 | 1005.0 |
| 20260505214626 | 82 | 161 | 9.0 | 20.0 | 0.00 | 0.00 | 0.00 | 67 | 1005.1 |
| 20260505214449 | 82 | 249 | 10.0 | 20.0 | 0.00 | 0.00 | 0.00 | 68 | 1005.0 |
| 20260505214352 | 82 | 252 | 9.0 | 20.0 | 0.00 | 0.00 | 0.00 | 67 | 1005.0 |
| 20260505214255 | 82 | 207 | 8.0 | 20.0 | 0.00 | 0.00 | 0.00 | 68 | 1005.1 |
| 20260505214159 | 82 | 173 | 8.0 | 20.0 | 0.00 | 0.00 | 0.00 | 68 | 1005.2 |
| 20260505214106 | 82 | 150 | 8.0 | 20.0 | 0.00 | 0.00 | 0.00 | 68 | 1005.1 |
| 20260505213950 | 82 | 186 | 9.0 | 20.0 | 0.00 | 0.00 | 0.00 | 67 | 1005.2 |
| 20260505213854 | 82 | 220 | 11.0 | 20.0 | 0.00 | 0.00 | 0.00 | 67 | 1005.2 |
| 20260505213758 | 82 | 212 | 10.0 | 20.0 | 0.00 | 0.00 | 0.00 | 67 | 1005.2 |
| 20260505213722 | 82 | 139 | 8.0 | 21.0 | 0.00 | 0.00 | 0.00 | 67 | 1005.3 |
| 20260505213604 | 83 | 157 | 7.0 | 17.0 | 0.00 | 0.00 | 0.00 | 66 | 1005.2 |
| 20260505213451 | 83 | 126 | 7.0 | 17.0 | 0.00 | 0.00 | 0.00 | 66 | 1005.3 |
| 20260505213354 | 83 | 194 | 7.0 | 17.0 | 0.00 | 0.00 | 0.00 | 67 | 1005.3 |
| 20260505213257 | 83 | 153 | 7.0 | 18.0 | 0.00 | 0.00 | 0.00 | 68 | 1005.4 |
| 20260505213201 | 83 | 179 | 9.0 | 18.0 | 0.00 | 0.00 | 0.00 | 67 | 1005.4 |
| 20260505213105 | 83 | 188 | 10.0 | 18.0 | 0.00 | 0.00 | 0.00 | 67 | 1005.4 |
| 20260505212949 | 83 | 190 | 8.0 | 24.0 | 0.00 | 0.00 | 0.00 | 67 | 1005.3 |
| 20260505212858 | 83 | 216 | 7.0 | 24.0 | 0.00 | 0.00 | 0.00 | 66 | 1005.3 |
| 20260505212801 | 83 | 242 | 8.0 | 24.0 | 0.00 | 0.00 | 0.00 | 67 | 1005.3 |
| 20260505212705 | 82 | 234 | 9.0 | 24.0 | 0.00 | 0.00 | 0.00 | 66 | 1005.3 |
| 20260505212550 | 82 | 225 | 9.0 | 24.0 | 0.00 | 0.00 | 0.00 | 67 | 1005.3 |
| 20260505212453 | 82 | 202 | 8.0 | 24.0 | 0.00 | 0.00 | 0.00 | 67 | 1005.3 |
| 20260505212356 | 82 | 230 | 10.0 | 24.0 | 0.00 | 0.00 | 0.00 | 67 | 1005.3 |
| 20260505212306 | 82 | 213 | 12.0 | 24.0 | 0.00 | 0.00 | 0.00 | 67 | 1005.3 |
| 20260505212148 | 82 | 180 | 14.0 | 24.0 | 0.00 | 0.00 | 0.00 | 66 | 1005.4 |
| 20260505212051 | 82 | 178 | 11.0 | 19.0 | 0.00 | 0.00 | 0.00 | 65 | 1005.4 |
| 20260505212016 | 83 | 176 | 8.0 | 20.0 | 0.00 | 0.00 | 0.00 | 67 | 1005.4 |
| 20260505211917 | 83 | 203 | 8.0 | 20.0 | 0.00 | 0.00 | 0.00 | 66 | 1005.3 |
| 20260505211800 | 82 | 186 | 7.0 | 20.0 | 0.00 | 0.00 | 0.00 | 67 | 1005.4 |
| 20260505211725 | 82 | 209 | 9.0 | 20.0 | 0.00 | 0.00 | 0.00 | 66 | 1005.3 |
| 20260505211551 | 82 | 203 | 9.0 | 20.0 | 0.00 | 0.00 | 0.00 | 66 | 1005.3 |
| 20260505211515 | 82 | 231 | 7.0 | 20.0 | 0.00 | 0.00 | 0.00 | 67 | 1005.4 |
| 20260505211357 | 82 | 195 | 8.0 | 20.0 | 0.00 | 0.00 | 0.00 | 67 | 1005.3 |
| 20260505211301 | 82 | 192 | 8.0 | 20.0 | 0.00 | 0.00 | 0.00 | 67 | 1005.4 |
| 20260505211204 | 82 | 224 | 7.0 | 20.0 | 0.00 | 0.00 | 0.00 | 67 | 1005.4 |
| 20260505211048 | 82 | 178 | 8.0 | 21.0 | 0.00 | 0.00 | 0.00 | 67 | 1005.5 |
| 20260505211011 | 82 | 213 | 9.0 | 22.0 | 0.00 | 0.00 | 0.00 | 67 | 1005.5 |
| 20260505210858 | 82 | 233 | 11.0 | 22.0 | 0.00 | 0.00 | 0.00 | 67 | 1005.5 |
| 20260505210800 | 82 | 217 | 12.0 | 22.0 | 0.00 | 0.00 | 0.00 | 66 | 1005.5 |
| 20260505210705 | 82 | 222 | 11.0 | 22.0 | 0.00 | 0.00 | 0.00 | 66 | 1005.4 |
| 20260505210548 | 83 | 222 | 12.0 | 22.0 | 0.00 | 0.00 | 0.00 | 66 | 1005.4 |
| 20260505210453 | 83 | 217 | 11.0 | 22.0 | 0.00 | 0.00 | 0.00 | 66 | 1005.4 |
| 20260505210415 | 83 | 203 | 10.0 | 22.0 | 0.00 | 0.00 | 0.00 | 65 | 1005.4 |
| 20260505210302 | 83 | 221 | 11.0 | 22.0 | 0.00 | 0.00 | 0.00 | 67 | 1005.6 |
| 20260505210205 | 83 | 188 | 10.0 | 22.0 | 0.00 | 0.00 | 0.00 | 66 | 1005.5 |
| 20260505210049 | 82 | 161 | 7.0 | 17.0 | 0.00 | 0.00 | 0.00 | 68 | 1005.6 |
| 20260505205952 | 82 | 192 | 7.0 | 17.0 | 0.00 | 0.00 | 0.00 | 68 | 1005.6 |
| 20260505205856 | 82 | 202 | 9.0 | 17.0 | 0.00 | 0.00 | 0.00 | 68 | 1005.6 |
| 20260505205759 | 82 | 205 | 12.0 | 21.0 | 0.00 | 0.00 | 0.00 | 67 | 1005.7 |
| 20260505205702 | 82 | 201 | 9.0 | 21.0 | 0.00 | 0.00 | 0.00 | 67 | 1005.7 |
| 20260505205609 | 82 | 162 | 7.0 | 21.0 | 0.00 | 0.00 | 0.00 | 67 | 1005.7 |
| 20260505205512 | 82 | 189 | 9.0 | 21.0 | 0.00 | 0.00 | 0.00 | 67 | 1005.7 |
| 20260505205348 | 82 | 200 | 10.0 | 21.0 | 0.00 | 0.00 | 0.00 | 68 | 1005.7 |
| 20260505205252 | 82 | 223 | 11.0 | 21.0 | 0.00 | 0.00 | 0.00 | 68 | 1005.7 |
| 20260505205155 | 82 | 221 | 10.0 | 21.0 | 0.00 | 0.00 | 0.00 | 67 | 1005.7 |
| 20260505205058 | 82 | 209 | 11.0 | 21.0 | 0.00 | 0.00 | 0.00 | 67 | 1005.7 |
| 20260505205021 | 82 | 201 | 10.0 | 21.0 | 0.00 | 0.00 | 0.00 | 67 | 1005.6 |
| 20260505204848 | 82 | 154 | 9.0 | 20.0 | 0.00 | 0.00 | 0.00 | 67 | 1005.7 |
| 20260505204751 | 82 | 195 | 10.0 | 20.0 | 0.00 | 0.00 | 0.00 | 67 | 1005.8 |
| 20260505204655 | 82 | 183 | 10.0 | 20.0 | 0.00 | 0.00 | 0.00 | 68 | 1005.8 |
| 20260505204557 | 81 | 232 | 11.0 | 20.0 | 0.00 | 0.00 | 0.00 | 68 | 1005.7 |
| 20260505204502 | 81 | 186 | 11.0 | 20.0 | 0.00 | 0.00 | 0.00 | 68 | 1005.7 |
| 20260505204405 | 81 | 214 | 9.0 | 23.0 | 0.00 | 0.00 | 0.00 | 67 | 1005.8 |
| 20260505204312 | 81 | 234 | 10.0 | 23.0 | 0.00 | 0.00 | 0.00 | 67 | 1005.8 |
| 20260505204149 | 82 | 205 | 10.0 | 23.0 | 0.00 | 0.00 | 0.00 | 67 | 1005.8 |
| 20260505204053 | 82 | 236 | 8.0 | 23.0 | 0.00 | 0.00 | 0.00 | 67 | 1005.8 |
| 20260505203955 | 82 | 195 | 7.0 | 23.0 | 0.00 | 0.00 | 0.00 | 66 | 1005.9 |
| 20260505203859 | 82 | 195 | 7.0 | 23.0 | 0.00 | 0.00 | 0.00 | 67 | 1005.9 |
| 20260505203805 | 82 | 173 | 9.0 | 23.0 | 0.00 | 0.00 | 0.00 | 67 | 1005.9 |
| 20260505203651 | 83 | 177 | 9.0 | 23.0 | 0.00 | 0.00 | 0.00 | 66 | 1006.0 |
| 20260505203555 | 82 | 168 | 8.0 | 18.0 | 0.00 | 0.00 | 0.00 | 66 | 1005.9 |
| 20260505203458 | 82 | 174 | 8.0 | 18.0 | 0.00 | 0.00 | 0.00 | 66 | 1005.9 |
| 20260505203402 | 83 | 155 | 9.0 | 18.0 | 0.00 | 0.00 | 0.00 | 67 | 1006.0 |
| 20260505203305 | 82 | 232 | 11.0 | 18.0 | 0.00 | 0.00 | 0.00 | 67 | 1006.0 |
| 20260505203149 | 83 | 219 | 12.0 | 18.0 | 0.00 | 0.00 | 0.00 | 66 | 1006.0 |
| 20260505203055 | 83 | 196 | 10.0 | 16.0 | 0.00 | 0.00 | 0.00 | 66 | 1006.0 |
| 20260505202959 | 83 | 207 | 9.0 | 16.0 | 0.00 | 0.00 | 0.00 | 67 | 1006.1 |
| 20260505202901 | 83 | 165 | 8.0 | 16.0 | 0.00 | 0.00 | 0.00 | 67 | 1006.1 |
| 20260505202804 | 83 | 188 | 6.0 | 16.0 | 0.00 | 0.00 | 0.00 | 66 | 1006.1 |
| 20260505202648 | 82 | 196 | 8.0 | 16.0 | 0.00 | 0.00 | 0.00 | 68 | 1006.1 |
| 20260505202550 | 82 | 164 | 10.0 | 16.0 | 0.00 | 0.00 | 0.00 | 67 | 1006.1 |
| 20260505202454 | 82 | 209 | 11.0 | 16.0 | 0.00 | 0.00 | 0.00 | 66 | 1006.1 |
| 20260505202417 | 82 | 202 | 11.0 | 17.0 | 0.00 | 0.00 | 0.00 | 67 | 1006.2 |
| 20260505202306 | 82 | 231 | 11.0 | 17.0 | 0.00 | 0.00 | 0.00 | 68 | 1006.2 |
| 20260505202227 | 82 | 222 | 7.0 | 17.0 | 0.00 | 0.00 | 0.00 | 70 | 1006.2 |
| 20260505202108 | 82 | 178 | 5.0 | 17.0 | 0.00 | 0.00 | 0.00 | 70 | 1006.2 |
| 20260505201952 | 81 | 178 | 6.0 | 17.0 | 0.00 | 0.00 | 0.00 | 70 | 1006.3 |
| 20260505201855 | 81 | 206 | 7.0 | 17.0 | 0.00 | 0.00 | 0.00 | 70 | 1006.3 |
| 20260505201758 | 81 | 215 | 8.0 | 17.0 | 0.00 | 0.00 | 0.00 | 70 | 1006.4 |
| 20260505201702 | 81 | 225 | 9.0 | 17.0 | 0.00 | 0.00 | 0.00 | 70 | 1006.4 |
| 20260505201550 | 81 | 192 | 7.0 | 17.0 | 0.00 | 0.00 | 0.00 | 70 | 1006.3 |
| 20260505201453 | 81 | 200 | 4.0 | 17.0 | 0.00 | 0.00 | 0.00 | 70 | 1006.3 |
| 20260505201357 | 81 | 213 | 4.0 | 14.0 | 0.00 | 0.00 | 0.00 | 70 | 1006.3 |
| 20260505201300 | 81 | 202 | 6.0 | 14.0 | 0.00 | 0.00 | 0.00 | 69 | 1006.3 |
| 20260505201204 | 81 | 174 | 8.0 | 14.0 | 0.00 | 0.00 | 0.00 | 69 | 1006.4 |
| 20260505201051 | 81 | 200 | 8.0 | 13.0 | 0.00 | 0.00 | 0.00 | 69 | 1006.4 |
| 20260505200956 | 82 | 217 | 6.0 | 13.0 | 0.00 | 0.00 | 0.00 | 71 | 1006.4 |
| 20260505200859 | 82 | 213 | 5.0 | 13.0 | 0.00 | 0.00 | 0.00 | 70 | 1006.4 |
| 20260505200803 | 81 | 187 | 5.0 | 14.0 | 0.00 | 0.00 | 0.00 | 69 | 1006.4 |
| 20260505200708 | 81 | 135 | 7.0 | 14.0 | 0.00 | 0.00 | 0.00 | 69 | 1006.4 |
| 20260505200551 | 81 | 171 | 7.0 | 16.0 | 0.00 | 0.00 | 0.00 | 69 | 1006.3 |
| 20260505200514 | 82 | 162 | 6.0 | 16.0 | 0.00 | 0.00 | 0.00 | 69 | 1006.3 |
| 20260505200400 | 81 | 155 | 6.0 | 16.0 | 0.00 | 0.00 | 0.00 | 69 | 1006.3 |
| 20260505200304 | 82 | 223 | 6.0 | 18.0 | 0.00 | 0.00 | 0.00 | 69 | 1006.4 |
| 20260505200228 | 82 | 221 | 7.0 | 18.0 | 0.00 | 0.00 | 0.00 | 69 | 1006.4 |
| 20260505200110 | 81 | 225 | 8.0 | 18.0 | 0.00 | 0.00 | 0.00 | 69 | 1006.4 |
| 20260505195953 | 81 | 186 | 8.0 | 18.0 | 0.00 | 0.00 | 0.00 | 68 | 1006.4 |
| 20260505195858 | 81 | 213 | 9.0 | 18.0 | 0.00 | 0.00 | 0.00 | 69 | 1006.4 |
| 20260505195822 | 81 | 227 | 10.0 | 18.0 | 0.00 | 0.00 | 0.00 | 68 | 1006.3 |
| 20260505195648 | 81 | 235 | 12.0 | 18.0 | 0.00 | 0.00 | 0.00 | 68 | 1006.4 |
| 20260505195612 | 81 | 246 | 13.0 | 18.0 | 0.00 | 0.00 | 0.00 | 69 | 1006.4 |
| 20260505195514 | 81 | 238 | 12.0 | 19.0 | 0.00 | 0.00 | 0.00 | 69 | 1006.4 |
| 20260505195356 | 81 | 216 | 11.0 | 15.0 | 0.00 | 0.00 | 0.00 | 69 | 1006.4 |
| 20260505195259 | 81 | 231 | 11.0 | 15.0 | 0.00 | 0.00 | 0.00 | 69 | 1006.4 |
| 20260505195203 | 81 | 239 | 9.0 | 17.0 | 0.00 | 0.00 | 0.00 | 70 | 1006.4 |
| 20260505195127 | 81 | 242 | 6.0 | 16.0 | 0.00 | 0.00 | 0.00 | 70 | 1006.5 |
| 20260505194953 | 81 | 213 | 6.0 | 16.0 | 0.00 | 0.00 | 0.00 | 70 | 1006.5 |
| 20260505194856 | 81 | 215 | 6.0 | 16.0 | 0.00 | 0.00 | 0.00 | 70 | 1006.5 |
| 20260505194800 | 81 | 182 | 6.0 | 16.0 | 0.00 | 0.00 | 0.00 | 70 | 1006.5 |
| 20260505194703 | 81 | 221 | 9.0 | 19.0 | 0.00 | 0.00 | 0.00 | 70 | 1006.5 |
| 20260505194607 | 81 | 224 | 8.0 | 19.0 | 0.00 | 0.00 | 0.00 | 70 | 1006.6 |
| 20260505194510 | 81 | 190 | 6.0 | 19.0 | 0.00 | 0.00 | 0.00 | 69 | 1006.6 |
| 20260505194353 | 81 | 188 | 7.0 | 19.0 | 0.00 | 0.00 | 0.00 | 69 | 1006.6 |
| 20260505194257 | 81 | 188 | 8.0 | 19.0 | 0.00 | 0.00 | 0.00 | 69 | 1006.5 |
| 20260505194201 | 81 | 200 | 6.0 | 19.0 | 0.00 | 0.00 | 0.00 | 70 | 1006.6 |
| 20260505194104 | 81 | 195 | 5.0 | 19.0 | 0.00 | 0.00 | 0.00 | 70 | 1006.7 |
| 20260505193948 | 81 | 228 | 8.0 | 19.0 | 0.00 | 0.00 | 0.00 | 70 | 1006.7 |
| 20260505193851 | 81 | 183 | 8.0 | 19.0 | 0.00 | 0.00 | 0.00 | 69 | 1006.7 |
| 20260505193755 | 81 | 179 | 6.0 | 19.0 | 0.00 | 0.00 | 0.00 | 70 | 1006.7 |
| 20260505193704 | 81 | 207 | 4.0 | 16.0 | 0.00 | 0.00 | 0.00 | 71 | 1006.7 |
| 20260505193606 | 80 | 227 | 6.0 | 16.0 | 0.00 | 0.00 | 0.00 | 71 | 1006.7 |
| 20260505193510 | 80 | 183 | 9.0 | 17.0 | 0.00 | 0.00 | 0.00 | 70 | 1006.7 |
| 20260505193352 | 80 | 177 | 10.0 | 18.0 | 0.00 | 0.00 | 0.00 | 70 | 1006.7 |
| 20260505193256 | 80 | 182 | 9.0 | 18.0 | 0.00 | 0.00 | 0.00 | 70 | 1006.8 |
| 20260505193219 | 80 | 171 | 8.0 | 18.0 | 0.00 | 0.00 | 0.00 | 70 | 1006.7 |
| 20260505193101 | 80 | 197 | 9.0 | 18.0 | 0.00 | 0.00 | 0.00 | 70 | 1006.8 |
| 20260505192949 | 80 | 235 | 11.0 | 18.0 | 0.00 | 0.00 | 0.00 | 70 | 1006.7 |
| 20260505192852 | 80 | 234 | 10.0 | 18.0 | 0.00 | 0.00 | 0.00 | 70 | 1006.7 |
| 20260505192755 | 81 | 236 | 11.0 | 18.0 | 0.00 | 0.00 | 0.00 | 70 | 1006.7 |
| 20260505192659 | 81 | 236 | 11.0 | 18.0 | 0.00 | 0.00 | 0.00 | 69 | 1006.7 |
| 20260505192602 | 81 | 196 | 11.0 | 18.0 | 0.00 | 0.00 | 0.00 | 69 | 1006.6 |
| 20260505192506 | 81 | 197 | 9.0 | 18.0 | 0.00 | 0.00 | 0.00 | 70 | 1006.7 |
| 20260505192414 | 81 | 196 | 6.0 | 17.0 | 0.00 | 0.00 | 0.00 | 71 | 1006.7 |
| 20260505192257 | 81 | 204 | 7.0 | 17.0 | 0.00 | 0.00 | 0.00 | 70 | 1006.7 |
| 20260505192200 | 81 | 207 | 8.0 | 17.0 | 0.00 | 0.00 | 0.00 | 70 | 1006.7 |
| 20260505192103 | 81 | 161 | 8.0 | 17.0 | 0.00 | 0.00 | 0.00 | 69 | 1006.7 |
| 20260505191948 | 81 | 183 | 8.0 | 16.0 | 0.00 | 0.00 | 0.00 | 70 | 1006.7 |
| 20260505191851 | 81 | 196 | 7.0 | 16.0 | 0.00 | 0.00 | 0.00 | 69 | 1006.7 |
| 20260505191759 | 81 | 198 | 8.0 | 18.0 | 0.00 | 0.00 | 0.00 | 69 | 1006.7 |
| 20260505191702 | 81 | 200 | 9.0 | 18.0 | 0.00 | 0.00 | 0.00 | 68 | 1006.7 |
| 20260505191606 | 82 | 198 | 11.0 | 18.0 | 0.00 | 0.00 | 0.00 | 68 | 1006.7 |
| 20260505191450 | 82 | 190 | 10.0 | 18.0 | 0.00 | 0.00 | 0.00 | 70 | 1006.7 |
| 20260505191414 | 82 | 221 | 8.0 | 18.0 | 0.00 | 0.00 | 0.00 | 70 | 1006.7 |
| 20260505191256 | 81 | 223 | 10.0 | 18.0 | 0.00 | 0.00 | 0.00 | 69 | 1006.8 |
| 20260505191200 | 81 | 220 | 9.0 | 18.0 | 0.00 | 0.00 | 0.00 | 69 | 1006.7 |
| 20260505191047 | 81 | 238 | 8.0 | 15.0 | 0.00 | 0.00 | 0.00 | 70 | 1006.7 |
| 20260505190951 | 81 | 233 | 8.0 | 15.0 | 0.00 | 0.00 | 0.00 | 70 | 1006.7 |
| 20260505190853 | 80 | 203 | 10.0 | 16.0 | 0.00 | 0.00 | 0.00 | 70 | 1006.7 |
| 20260505190756 | 81 | 218 | 9.0 | 16.0 | 0.00 | 0.00 | 0.00 | 69 | 1006.7 |
| 20260505190701 | 81 | 223 | 6.0 | 16.0 | 0.00 | 0.00 | 0.00 | 73 | 1006.7 |
| 20260505190603 | 80 | 215 | 5.0 | 16.0 | 0.00 | 0.00 | 0.00 | 71 | 1006.8 |
| 20260505190512 | 80 | 186 | 6.0 | 16.0 | 0.00 | 0.00 | 0.00 | 71 | 1006.8 |
| 20260505190348 | 80 | 188 | 6.0 | 16.0 | 0.00 | 0.00 | 0.00 | 71 | 1006.8 |
| 20260505190251 | 80 | 207 | 6.0 | 16.0 | 0.00 | 0.00 | 0.00 | 71 | 1006.8 |
| 20260505190155 | 80 | 242 | 9.0 | 16.0 | 0.00 | 0.00 | 0.00 | 72 | 1006.8 |
| 20260505190059 | 80 | 201 | 10.0 | 16.0 | 0.00 | 0.00 | 0.00 | 71 | 1006.8 |
| 20260505190003 | 80 | 217 | 11.0 | 16.0 | 0.00 | 0.00 | 0.00 | 71 | 1006.9 |
| 20260505185851 | 80 | 212 | 10.0 | 17.0 | 0.00 | 0.00 | 0.00 | 71 | 1006.9 |
| 20260505185754 | 80 | 181 | 8.0 | 16.0 | 0.00 | 0.00 | 0.00 | 72 | 1007.0 |
| 20260505185658 | 80 | 184 | 8.0 | 14.0 | 0.00 | 0.00 | 0.00 | 72 | 1007.0 |
| 20260505185602 | 80 | 182 | 7.0 | 14.0 | 0.00 | 0.00 | 0.00 | 71 | 1007.0 |
| 20260505185506 | 80 | 188 | 6.0 | 14.0 | 0.00 | 0.00 | 0.00 | 72 | 1007.0 |
| 20260505185350 | 80 | 232 | 6.0 | 14.0 | 0.00 | 0.00 | 0.00 | 72 | 1007.1 |
| 20260505185259 | 79 | 209 | 6.0 | 14.0 | 0.00 | 0.00 | 0.00 | 72 | 1007.1 |
| 20260505185203 | 80 | 207 | 7.0 | 14.0 | 0.00 | 0.00 | 0.00 | 71 | 1007.1 |
| 20260505185107 | 80 | 195 | 7.0 | 14.0 | 0.00 | 0.00 | 0.00 | 71 | 1007.1 |
| 20260505184951 | 80 | 159 | 8.0 | 15.0 | 0.00 | 0.00 | 0.00 | 71 | 1007.1 |
| 20260505184855 | 80 | 209 | 9.0 | 14.0 | 0.00 | 0.00 | 0.00 | 71 | 1007.1 |
| 20260505184758 | 80 | 222 | 6.0 | 14.0 | 0.00 | 0.00 | 0.00 | 71 | 1007.1 |
| 20260505184705 | 80 | 222 | 5.0 | 14.0 | 0.00 | 0.00 | 0.00 | 71 | 1007.1 |
| 20260505184629 | 80 | 223 | 8.0 | 14.0 | 0.00 | 0.00 | 0.00 | 71 | 1007.2 |
| 20260505184511 | 80 | 207 | 8.0 | 14.0 | 0.00 | 0.00 | 0.00 | 72 | 1007.2 |
| 20260505184414 | 80 | 224 | 6.0 | 14.0 | 0.00 | 0.00 | 0.00 | 72 | 1007.1 |
| 20260505184249 | 79 | 215 | 7.0 | 14.0 | 0.00 | 0.00 | 0.00 | 72 | 1007.2 |
| 20260505184153 | 79 | 203 | 8.0 | 14.0 | 0.00 | 0.00 | 0.00 | 73 | 1007.2 |
| 20260505184117 | 79 | 244 | 8.0 | 14.0 | 0.00 | 0.00 | 0.00 | 72 | 1007.1 |
| 20260505184003 | 79 | 209 | 8.0 | 14.0 | 0.00 | 0.00 | 0.00 | 72 | 1007.2 |
| 20260505183907 | 79 | 234 | 8.0 | 14.0 | 0.00 | 0.00 | 0.00 | 72 | 1007.1 |
| 20260505183752 | 79 | 223 | 9.0 | 14.0 | 0.00 | 0.00 | 0.00 | 72 | 1007.1 |
| 20260505183656 | 79 | 223 | 9.0 | 15.0 | 0.00 | 0.00 | 0.00 | 72 | 1007.1 |
| 20260505183559 | 79 | 213 | 9.0 | 14.0 | 0.00 | 0.00 | 0.00 | 71 | 1007.1 |
| 20260505183503 | 79 | 217 | 7.0 | 14.0 | 0.00 | 0.00 | 0.00 | 72 | 1007.1 |
| 20260505183351 | 79 | 248 | 6.0 | 15.0 | 0.00 | 0.00 | 0.00 | 73 | 1007.1 |
| 20260505183314 | 79 | 218 | 8.0 | 15.0 | 0.00 | 0.00 | 0.00 | 71 | 1007.1 |
| 20260505183157 | 80 | 207 | 8.0 | 15.0 | 0.00 | 0.00 | 0.00 | 71 | 1007.2 |
| 20260505183100 | 80 | 227 | 8.0 | 15.0 | 0.00 | 0.00 | 0.00 | 72 | 1007.3 |
| 20260505183003 | 80 | 217 | 5.0 | 15.0 | 0.00 | 0.00 | 0.00 | 72 | 1007.2 |
| 20260505182907 | 80 | 210 | 5.0 | 15.0 | 0.00 | 0.00 | 0.00 | 73 | 1007.3 |
| 20260505182754 | 79 | 200 | 8.0 | 15.0 | 0.00 | 0.00 | 0.00 | 74 | 1007.3 |
| 20260505182658 | 79 | 234 | 9.0 | 15.0 | 0.00 | 0.00 | 0.00 | 73 | 1007.3 |
| 20260505182600 | 79 | 227 | 9.0 | 15.0 | 0.00 | 0.00 | 0.00 | 73 | 1007.3 |
| 20260505182525 | 79 | 219 | 7.0 | 12.0 | 0.00 | 0.00 | 0.00 | 73 | 1007.4 |
| 20260505182348 | 79 | 223 | 6.0 | 12.0 | 0.00 | 0.00 | 0.00 | 73 | 1007.4 |
| 20260505182251 | 79 | 229 | 5.0 | 12.0 | 0.00 | 0.00 | 0.00 | 75 | 1007.4 |
| 20260505182155 | 78 | 247 | 5.0 | 12.0 | 0.00 | 0.00 | 0.00 | 74 | 1007.4 |
| 20260505182102 | 78 | 216 | 4.0 | 15.0 | 0.00 | 0.00 | 0.00 | 74 | 1007.4 |
| 20260505182006 | 78 | 204 | 7.0 | 15.0 | 0.00 | 0.00 | 0.00 | 74 | 1007.4 |
| 20260505181850 | 78 | 219 | 8.0 | 15.0 | 0.00 | 0.00 | 0.00 | 73 | 1007.4 |
| 20260505181814 | 78 | 232 | 7.0 | 15.0 | 0.00 | 0.00 | 0.00 | 73 | 1007.4 |
| 20260505181649 | 78 | 242 | 7.0 | 15.0 | 0.00 | 0.00 | 0.00 | 74 | 1007.4 |
| 20260505181553 | 78 | 206 | 7.0 | 15.0 | 0.00 | 0.00 | 0.00 | 74 | 1007.4 |
| 20260505181500 | 78 | 213 | 7.0 | 15.0 | 0.00 | 0.00 | 0.00 | 74 | 1007.4 |
| 20260505181404 | 78 | 238 | 9.0 | 15.0 | 0.00 | 0.00 | 0.00 | 74 | 1007.4 |
| 20260505181327 | 78 | 262 | 9.0 | 15.0 | 0.00 | 0.00 | 0.00 | 73 | 1007.3 |
| 20260505181150 | 78 | 259 | 9.0 | 15.0 | 0.00 | 0.00 | 0.00 | 74 | 1007.3 |
| 20260505181052 | 78 | 259 | 9.0 | 15.0 | 0.00 | 0.00 | 0.00 | 74 | 1007.3 |
| 20260505180955 | 78 | 234 | 9.0 | 15.0 | 0.00 | 0.00 | 0.00 | 75 | 1007.4 |
| 20260505180858 | 78 | 229 | 10.0 | 15.0 | 0.00 | 0.00 | 0.00 | 74 | 1007.3 |
| 20260505180807 | 78 | 234 | 8.0 | 15.0 | 0.00 | 0.00 | 0.00 | 74 | 1007.4 |
| 20260505180651 | 78 | 232 | 9.0 | 15.0 | 0.00 | 0.00 | 0.00 | 76 | 1007.4 |
| 20260505180553 | 77 | 220 | 9.0 | 15.0 | 0.00 | 0.00 | 0.00 | 76 | 1007.4 |
| 20260505180456 | 77 | 229 | 7.0 | 15.0 | 0.00 | 0.00 | 0.00 | 76 | 1007.4 |
| 20260505180401 | 77 | 236 | 6.0 | 15.0 | 0.00 | 0.00 | 0.00 | 77 | 1007.5 |
| 20260505180304 | 77 | 198 | 5.0 | 14.0 | 0.00 | 0.00 | 0.00 | 77 | 1007.6 |
| 20260505180212 | 76 | 205 | 7.0 | 14.0 | 0.00 | 0.00 | 0.00 | 77 | 1007.6 |
| 20260505180048 | 76 | 257 | 8.0 | 14.0 | 0.00 | 0.00 | 0.00 | 76 | 1007.7 |
| 20260505175952 | 76 | 227 | 8.0 | 14.0 | 0.00 | 0.00 | 0.00 | 77 | 1007.7 |
| 20260505175855 | 76 | 232 | 7.0 | 14.0 | 0.00 | 0.00 | 0.00 | 77 | 1007.7 |
| 20260505175818 | 76 | 225 | 8.0 | 14.0 | 0.00 | 0.00 | 0.00 | 77 | 1007.7 |
| 20260505175701 | 76 | 224 | 9.0 | 14.0 | 0.00 | 0.00 | 0.00 | 77 | 1007.8 |
| 20260505175548 | 76 | 220 | 10.0 | 14.0 | 0.00 | 0.00 | 0.00 | 78 | 1007.9 |
| 20260505175512 | 76 | 224 | 10.0 | 14.0 | 0.00 | 0.00 | 0.00 | 77 | 1007.9 |
| 20260505175348 | 76 | 241 | 9.0 | 14.0 | 0.00 | 0.00 | 0.00 | 77 | 1007.9 |
| 20260505175252 | 76 | 234 | 9.0 | 14.0 | 0.00 | 0.00 | 0.00 | 77 | 1007.9 |
| 20260505175155 | 76 | 231 | 8.0 | 14.0 | 0.00 | 0.00 | 0.00 | 77 | 1007.8 |
| 20260505175059 | 76 | 196 | 8.0 | 14.0 | 0.00 | 0.00 | 0.00 | 76 | 1007.9 |
| 20260505175007 | 76 | 236 | 8.0 | 12.0 | 0.00 | 0.00 | 0.00 | 76 | 1007.9 |
| 20260505174850 | 77 | 243 | 7.0 | 12.0 | 0.00 | 0.00 | 0.00 | 77 | 1007.9 |
| 20260505174753 | 77 | 223 | 6.0 | 12.0 | 0.00 | 0.00 | 0.00 | 78 | 1007.9 |
| 20260505174657 | 76 | 227 | 6.0 | 15.0 | 0.00 | 0.00 | 0.00 | 78 | 1007.8 |
| 20260505174620 | 76 | 272 | 6.0 | 16.0 | 0.00 | 0.00 | 0.00 | 79 | 1007.9 |
| 20260505174503 | 76 | 249 | 7.0 | 16.0 | 0.00 | 0.00 | 0.00 | 78 | 1007.8 |
| 20260505174404 | 76 | 169 | 8.0 | 16.0 | 0.00 | 0.00 | 0.00 | 78 | 1007.8 |
| 20260505174251 | 76 | 200 | 8.0 | 16.0 | 0.00 | 0.00 | 0.00 | 78 | 1007.8 |
| 20260505174153 | 76 | 199 | 9.0 | 16.0 | 0.00 | 0.00 | 0.00 | 78 | 1007.8 |
| 20260505174058 | 75 | 223 | 9.0 | 16.0 | 0.00 | 0.00 | 0.00 | 79 | 1007.7 |
| 20260505174000 | 75 | 215 | 10.0 | 16.0 | 0.00 | 0.00 | 0.00 | 78 | 1007.7 |
| 20260505173903 | 75 | 215 | 10.0 | 16.0 | 0.00 | 0.00 | 0.00 | 78 | 1007.8 |
| 20260505173806 | 75 | 238 | 10.0 | 16.0 | 0.00 | 0.00 | 0.00 | 78 | 1007.7 |
| 20260505173715 | 75 | 213 | 8.0 | 13.0 | 0.00 | 0.00 | 0.00 | 79 | 1007.8 |
| 20260505173557 | 75 | 217 | 9.0 | 13.0 | 0.00 | 0.00 | 0.00 | 80 | 1007.8 |
| 20260505173458 | 75 | 242 | 8.0 | 13.0 | 0.00 | 0.00 | 0.00 | 80 | 1007.8 |
| 20260505173422 | 75 | 229 | 7.0 | 13.0 | 0.00 | 0.00 | 0.00 | 80 | 1007.9 |
| 20260505173304 | 75 | 226 | 7.0 | 15.0 | 0.00 | 0.00 | 0.00 | 80 | 1007.9 |
| 20260505173149 | 75 | 206 | 8.0 | 15.0 | 0.00 | 0.00 | 0.00 | 80 | 1007.9 |
| 20260505173053 | 74 | 213 | 10.0 | 15.0 | 0.00 | 0.00 | 0.00 | 80 | 1007.9 |
| 20260505173000 | 74 | 234 | 10.0 | 17.0 | 0.00 | 0.00 | 0.00 | 80 | 1008.0 |
| 20260505172904 | 74 | 232 | 10.0 | 17.0 | 0.00 | 0.00 | 0.00 | 80 | 1008.0 |
| 20260505172807 | 74 | 224 | 10.0 | 17.0 | 0.00 | 0.00 | 0.00 | 80 | 1008.0 |
| 20260505172651 | 74 | 198 | 10.0 | 17.0 | 0.00 | 0.00 | 0.00 | 80 | 1008.0 |
| 20260505172614 | 74 | 218 | 9.0 | 17.0 | 0.00 | 0.00 | 0.00 | 80 | 1008.0 |
| 20260505172456 | 74 | 234 | 10.0 | 17.0 | 0.00 | 0.00 | 0.00 | 80 | 1008.1 |
| 20260505172400 | 74 | 236 | 11.0 | 17.0 | 0.00 | 0.00 | 0.00 | 80 | 1008.0 |
| 20260505172307 | 74 | 225 | 12.0 | 17.0 | 0.00 | 0.00 | 0.00 | 80 | 1008.2 |
| 20260505172151 | 74 | 234 | 10.0 | 17.0 | 0.00 | 0.00 | 0.00 | 80 | 1008.1 |
| 20260505172055 | 74 | 225 | 9.0 | 15.0 | 0.00 | 0.00 | 0.00 | 80 | 1008.1 |
| 20260505171958 | 74 | 223 | 9.0 | 15.0 | 0.00 | 0.00 | 0.00 | 80 | 1008.2 |
| 20260505171902 | 74 | 231 | 9.0 | 15.0 | 0.00 | 0.00 | 0.00 | 80 | 1008.2 |
| 20260505171750 | 74 | 217 | 9.0 | 15.0 | 0.00 | 0.00 | 0.00 | 80 | 1008.2 |
| 20260505171714 | 74 | 203 | 9.0 | 15.0 | 0.00 | 0.00 | 0.00 | 80 | 1008.2 |
| 20260505171550 | 74 | 234 | 9.0 | 15.0 | 0.00 | 0.00 | 0.00 | 80 | 1008.2 |
| 20260505171514 | 74 | 225 | 7.0 | 14.0 | 0.00 | 0.00 | 0.00 | 80 | 1008.2 |
| 20260505171357 | 74 | 246 | 6.0 | 13.0 | 0.00 | 0.00 | 0.00 | 81 | 1008.1 |
| 20260505171300 | 74 | 240 | 7.0 | 12.0 | 0.00 | 0.00 | 0.00 | 81 | 1008.2 |
| 20260505171203 | 74 | 205 | 8.0 | 12.0 | 0.00 | 0.00 | 0.00 | 81 | 1008.1 |
| 20260505171051 | 74 | 208 | 9.0 | 13.0 | 0.00 | 0.00 | 0.00 | 81 | 1008.1 |
| 20260505170954 | 74 | 221 | 9.0 | 13.0 | 0.00 | 0.00 | 0.00 | 81 | 1008.1 |
| 20260505170858 | 74 | 236 | 8.0 | 13.0 | 0.00 | 0.00 | 0.00 | 81 | 1008.2 |
| 20260505170800 | 74 | 225 | 9.0 | 13.0 | 0.00 | 0.00 | 0.00 | 81 | 1008.1 |
| 20260505170705 | 74 | 231 | 7.0 | 13.0 | 0.00 | 0.00 | 0.00 | 81 | 1008.2 |
| 20260505170607 | 74 | 221 | 6.0 | 13.0 | 0.00 | 0.00 | 0.00 | 81 | 1008.2 |
| 20260505170455 | 73 | 246 | 7.0 | 13.0 | 0.00 | 0.00 | 0.00 | 81 | 1008.2 |
| 20260505170419 | 73 | 219 | 9.0 | 16.0 | 0.00 | 0.00 | 0.00 | 81 | 1008.2 |
| 20260505170301 | 73 | 228 | 9.0 | 17.0 | 0.00 | 0.00 | 0.00 | 81 | 1008.2 |
| 20260505170226 | 73 | 217 | 9.0 | 17.0 | 0.00 | 0.00 | 0.00 | 81 | 1008.1 |
| 20260505170108 | 73 | 219 | 9.0 | 17.0 | 0.00 | 0.00 | 0.00 | 81 | 1008.1 |
| 20260505170032 | 73 | 220 | 9.0 | 17.0 | 0.00 | 0.00 | 0.00 | 81 | 1008.2 |
| 20260505165956 | 73 | 212 | 9.0 | 17.0 | 0.00 | 0.00 | 0.00 | 81 | 1008.2 |
| 20260505165816 | 73 | 229 | 10.0 | 17.0 | 0.00 | 0.00 | 0.00 | 82 | 1008.1 |
| 20260505165659 | 73 | 217 | 10.0 | 17.0 | 0.00 | 0.00 | 0.00 | 82 | 1008.1 |
| 20260505165607 | 73 | 223 | 11.0 | 17.0 | 0.00 | 0.00 | 0.00 | 82 | 1008.1 |
| 20260505165450 | 73 | 242 | 10.0 | 17.0 | 0.00 | 0.00 | 0.00 | 82 | 1008.2 |
| 20260505165354 | 73 | 229 | 11.0 | 17.0 | 0.00 | 0.00 | 0.00 | 81 | 1008.2 |
| 20260505165257 | 73 | 232 | 12.0 | 17.0 | 0.00 | 0.00 | 0.00 | 81 | 1008.2 |
| 20260505165201 | 73 | 231 | 10.0 | 16.0 | 0.00 | 0.00 | 0.00 | 82 | 1008.2 |
| 20260505165105 | 73 | 238 | 11.0 | 15.0 | 0.00 | 0.00 | 0.00 | 82 | 1008.1 |
| 20260505164955 | 73 | 224 | 9.0 | 15.0 | 0.00 | 0.00 | 0.00 | 82 | 1008.2 |
| 20260505164858 | 73 | 211 | 8.0 | 15.0 | 0.00 | 0.00 | 0.00 | 82 | 1008.1 |
| 20260505164822 | 73 | 238 | 8.0 | 15.0 | 0.00 | 0.00 | 0.00 | 82 | 1008.1 |
| 20260505164706 | 73 | 236 | 8.0 | 15.0 | 0.00 | 0.00 | 0.00 | 82 | 1008.0 |
| 20260505164549 | 73 | 221 | 8.0 | 15.0 | 0.00 | 0.00 | 0.00 | 82 | 1008.1 |
| 20260505164453 | 73 | 250 | 9.0 | 15.0 | 0.00 | 0.00 | 0.00 | 82 | 1008.1 |
| 20260505164416 | 73 | 228 | 11.0 | 15.0 | 0.00 | 0.00 | 0.00 | 82 | 1008.1 |
| 20260505164303 | 73 | 217 | 12.0 | 16.0 | 0.00 | 0.00 | 0.00 | 82 | 1008.0 |
| 20260505164205 | 73 | 223 | 11.0 | 17.0 | 0.00 | 0.00 | 0.00 | 82 | 1008.0 |
| 20260505164049 | 73 | 234 | 9.0 | 16.0 | 0.00 | 0.00 | 0.00 | 82 | 1008.0 |
| 20260505163954 | 73 | 231 | 9.0 | 16.0 | 0.00 | 0.00 | 0.00 | 82 | 1008.0 |
| 20260505163856 | 73 | 196 | 10.0 | 16.0 | 0.00 | 0.00 | 0.00 | 83 | 1008.1 |
| 20260505163800 | 73 | 229 | 10.0 | 16.0 | 0.00 | 0.00 | 0.00 | 83 | 1008.1 |
| 20260505163708 | 73 | 229 | 9.0 | 16.0 | 0.00 | 0.00 | 0.00 | 83 | 1008.1 |
| 20260505163550 | 72 | 232 | 9.0 | 15.0 | 0.00 | 0.00 | 0.00 | 83 | 1008.1 |
| 20260505163454 | 72 | 242 | 9.0 | 15.0 | 0.00 | 0.00 | 0.00 | 83 | 1008.1 |
| 20260505163359 | 72 | 260 | 8.0 | 15.0 | 0.00 | 0.00 | 0.00 | 83 | 1008.1 |
| 20260505163301 | 72 | 207 | 9.0 | 15.0 | 0.00 | 0.00 | 0.00 | 83 | 1008.1 |
| 20260505163225 | 72 | 227 | 9.0 | 15.0 | 0.00 | 0.00 | 0.00 | 83 | 1008.0 |
| 20260505163111 | 72 | 221 | 9.0 | 15.0 | 0.00 | 0.00 | 0.00 | 83 | 1008.0 |
| 20260505162948 | 72 | 225 | 9.0 | 15.0 | 0.00 | 0.00 | 0.00 | 83 | 1008.0 |
| 20260505162912 | 72 | 202 | 10.0 | 15.0 | 0.00 | 0.00 | 0.00 | 83 | 1008.0 |
| 20260505162754 | 72 | 219 | 10.0 | 15.0 | 0.00 | 0.00 | 0.00 | 83 | 1008.0 |
| 20260505162658 | 72 | 208 | 9.0 | 15.0 | 0.00 | 0.00 | 0.00 | 83 | 1008.0 |
| 20260505162601 | 72 | 223 | 10.0 | 15.0 | 0.00 | 0.00 | 0.00 | 83 | 1008.1 |
| 20260505162449 | 72 | 211 | 9.0 | 14.0 | 0.00 | 0.00 | 0.00 | 83 | 1008.1 |
| 20260505162413 | 72 | 205 | 8.0 | 14.0 | 0.00 | 0.00 | 0.00 | 83 | 1008.1 |
| 20260505162256 | 72 | 203 | 7.0 | 14.0 | 0.00 | 0.00 | 0.00 | 83 | 1008.0 |
| 20260505162201 | 72 | 225 | 8.0 | 14.0 | 0.00 | 0.00 | 0.00 | 83 | 1008.0 |
| 20260505162106 | 72 | 234 | 9.0 | 15.0 | 0.00 | 0.00 | 0.00 | 83 | 1008.1 |
| 20260505161949 | 72 | 238 | 9.0 | 15.0 | 0.00 | 0.00 | 0.00 | 83 | 1008.1 |
| 20260505161853 | 72 | 221 | 10.0 | 15.0 | 0.00 | 0.00 | 0.00 | 83 | 1008.1 |
| 20260505161800 | 72 | 216 | 9.0 | 15.0 | 0.00 | 0.00 | 0.00 | 84 | 1008.1 |
| 20260505161724 | 72 | 234 | 8.0 | 15.0 | 0.00 | 0.00 | 0.00 | 84 | 1008.2 |
| 20260505161606 | 72 | 211 | 8.0 | 15.0 | 0.00 | 0.00 | 0.00 | 84 | 1008.2 |
| 20260505161450 | 72 | 214 | 8.0 | 15.0 | 0.00 | 0.00 | 0.00 | 84 | 1008.2 |
| 20260505161413 | 72 | 221 | 9.0 | 15.0 | 0.00 | 0.00 | 0.00 | 84 | 1008.2 |
| 20260505161250 | 72 | 232 | 9.0 | 15.0 | 0.00 | 0.00 | 0.00 | 84 | 1008.2 |
| 20260505161158 | 72 | 214 | 6.0 | 11.0 | 0.00 | 0.00 | 0.00 | 84 | 1008.2 |
| 20260505161101 | 72 | 225 | 6.0 | 11.0 | 0.00 | 0.00 | 0.00 | 84 | 1008.3 |
| 20260505161005 | 71 | 216 | 7.0 | 11.0 | 0.00 | 0.00 | 0.00 | 84 | 1008.2 |
| 20260505160848 | 71 | 231 | 8.0 | 11.0 | 0.00 | 0.00 | 0.00 | 84 | 1008.2 |
| 20260505160751 | 71 | 234 | 8.0 | 11.0 | 0.00 | 0.00 | 0.00 | 84 | 1008.2 |
| 20260505160656 | 71 | 236 | 7.0 | 11.0 | 0.00 | 0.00 | 0.00 | 84 | 1008.3 |
| 20260505160603 | 71 | 238 | 7.0 | 11.0 | 0.00 | 0.00 | 0.00 | 84 | 1008.1 |
| 20260505160507 | 71 | 244 | 7.0 | 11.0 | 0.00 | 0.00 | 0.00 | 84 | 1008.2 |
| 20260505160350 | 71 | 209 | 7.0 | 12.0 | 0.00 | 0.00 | 0.00 | 85 | 1008.3 |
| 20260505160253 | 71 | 214 | 7.0 | 12.0 | 0.00 | 0.00 | 0.00 | 85 | 1008.3 |
| 20260505160157 | 71 | 225 | 8.0 | 12.0 | 0.00 | 0.00 | 0.00 | 85 | 1008.2 |
| 20260505153313 | 70 | 233 | 10.0 | 21.0 | 0.00 | 0.00 | 0.00 | 85 | 1008.2 |
| 20260505153150 | 70 | 225 | 9.0 | 21.0 | 0.00 | 0.00 | 0.00 | 85 | 1008.1 |
| 20260505153114 | 70 | 227 | 9.0 | 21.0 | 0.00 | 0.00 | 0.00 | 85 | 1008.1 |
| 20260505152957 | 70 | 224 | 11.0 | 21.0 | 0.00 | 0.00 | 0.00 | 85 | 1008.1 |
| 20260505152900 | 70 | 244 | 11.0 | 18.0 | 0.00 | 0.00 | 0.00 | 85 | 1008.1 |
| 20260505152804 | 70 | 234 | 11.0 | 18.0 | 0.00 | 0.00 | 0.00 | 85 | 1008.1 |
| 20260505152652 | 70 | 208 | 11.0 | 18.0 | 0.00 | 0.00 | 0.00 | 85 | 1008.1 |
| 20260505152555 | 70 | 221 | 11.0 | 18.0 | 0.00 | 0.00 | 0.00 | 85 | 1008.1 |
| 20260505152459 | 70 | 245 | 12.0 | 18.0 | 0.00 | 0.00 | 0.00 | 85 | 1008.0 |
| 20260505152402 | 70 | 242 | 11.0 | 18.0 | 0.00 | 0.00 | 0.00 | 85 | 1008.0 |
| 20260505152305 | 70 | 236 | 9.0 | 18.0 | 0.00 | 0.00 | 0.00 | 85 | 1008.0 |
| 20260505152150 | 70 | 216 | 10.0 | 18.0 | 0.00 | 0.00 | 0.00 | 85 | 1008.1 |
| 20260505152056 | 70 | 234 | 11.0 | 18.0 | 0.00 | 0.00 | 0.00 | 85 | 1008.1 |
| 20260505152001 | 70 | 227 | 11.0 | 18.0 | 0.00 | 0.00 | 0.00 | 86 | 1008.1 |
| 20260505151906 | 70 | 227 | 10.0 | 17.0 | 0.00 | 0.00 | 0.00 | 86 | 1008.1 |
| 20260505151750 | 70 | 232 | 11.0 | 17.0 | 0.00 | 0.00 | 0.00 | 86 | 1008.0 |
| 20260505151713 | 70 | 221 | 11.0 | 16.0 | 0.00 | 0.00 | 0.00 | 86 | 1008.0 |
| 20260505151555 | 70 | 227 | 11.0 | 16.0 | 0.00 | 0.00 | 0.00 | 86 | 1008.0 |
| 20260505151459 | 70 | 227 | 11.0 | 16.0 | 0.00 | 0.00 | 0.00 | 86 | 1008.1 |
| 20260505151407 | 70 | 232 | 9.0 | 16.0 | 0.00 | 0.00 | 0.00 | 86 | 1007.9 |
| 20260505151250 | 70 | 226 | 8.0 | 14.0 | 0.00 | 0.00 | 0.00 | 86 | 1008.0 |
| 20260505151154 | 70 | 244 | 9.0 | 14.0 | 0.00 | 0.00 | 0.00 | 86 | 1008.0 |
| 20260505151117 | 70 | 248 | 8.0 | 15.0 | 0.00 | 0.00 | 0.00 | 86 | 1008.0 |
| 20260505151000 | 70 | 237 | 8.0 | 15.0 | 0.00 | 0.00 | 0.00 | 86 | 1007.9 |
| 20260505150923 | 70 | 226 | 7.0 | 15.0 | 0.00 | 0.00 | 0.00 | 86 | 1007.9 |
| 20260505150826 | 70 | 212 | 8.0 | 15.0 | 0.00 | 0.00 | 0.00 | 86 | 1007.9 |
| 20260505150655 | 70 | 226 | 9.0 | 15.0 | 0.00 | 0.00 | 0.00 | 86 | 1007.8 |
| 20260505150617 | 70 | 224 | 9.0 | 15.0 | 0.00 | 0.00 | 0.00 | 86 | 1007.9 |
| 20260505150500 | 70 | 205 | 10.0 | 15.0 | 0.00 | 0.00 | 0.00 | 86 | 1007.7 |
| 20260505150404 | 70 | 234 | 10.0 | 15.0 | 0.00 | 0.00 | 0.00 | 86 | 1007.9 |
| 20260505150306 | 70 | 225 | 9.0 | 15.0 | 0.00 | 0.00 | 0.00 | 86 | 1007.7 |
| 20260505150150 | 70 | 241 | 9.0 | 15.0 | 0.00 | 0.00 | 0.00 | 86 | 1007.7 |
| 20260505150113 | 70 | 206 | 8.0 | 14.0 | 0.00 | 0.00 | 0.00 | 86 | 1007.7 |
| 20260505140607 | 69 | 197 | 8.0 | 19.0 | 0.00 | 0.00 | 0.00 | 87 | 1007.6 |
| 20260505140511 | 69 | 217 | 9.0 | 18.0 | 0.00 | 0.00 | 0.00 | 87 | 1007.7 |
| 20260505140352 | 69 | 241 | 12.0 | 18.0 | 0.00 | 0.00 | 0.00 | 87 | 1007.7 |
| 20260505140256 | 69 | 227 | 12.0 | 18.0 | 0.00 | 0.00 | 0.00 | 87 | 1007.6 |
| 20260505140159 | 69 | 233 | 10.0 | 18.0 | 0.00 | 0.00 | 0.00 | 87 | 1007.7 |
| 20260505130257 | 69 | 238 | 11.0 | 16.0 | 0.00 | 0.00 | 0.00 | 87 | 1007.0 |
| 20260505130200 | 69 | 201 | 11.0 | 14.0 | 0.00 | 0.00 | 0.00 | 87 | 1007.1 |
| 20260505130104 | 69 | 201 | 11.0 | 16.0 | 0.00 | 0.00 | 0.00 | 87 | 1007.0 |
| 20260505124949 | 69 | 194 | 10.0 | 17.0 | 0.00 | 0.00 | 0.00 | 87 | 1006.9 |
| 20260505124852 | 69 | 225 | 9.0 | 17.0 | 0.00 | 0.00 | 0.00 | 87 | 1006.9 |
| 20260505124754 | 69 | 220 | 10.0 | 17.0 | 0.00 | 0.00 | 0.00 | 87 | 1006.8 |
| 20260505124658 | 69 | 207 | 11.0 | 17.0 | 0.00 | 0.00 | 0.00 | 86 | 1006.8 |
| 20260505124605 | 69 | 211 | 12.0 | 17.0 | 0.00 | 0.00 | 0.00 | 86 | 1006.8 |
| 20260505124450 | 69 | 230 | 10.0 | 18.0 | 0.00 | 0.00 | 0.00 | 86 | 1006.8 |
| 20260505124413 | 69 | 206 | 8.0 | 17.0 | 0.00 | 0.00 | 0.00 | 86 | 1006.8 |
| 20260505124255 | 69 | 193 | 8.0 | 17.0 | 0.00 | 0.00 | 0.00 | 86 | 1006.7 |
| 20260505124159 | 69 | 194 | 8.0 | 17.0 | 0.00 | 0.00 | 0.00 | 86 | 1006.7 |
| 20260505124103 | 69 | 219 | 9.0 | 17.0 | 0.00 | 0.00 | 0.00 | 86 | 1006.7 |
| 20260505124027 | 69 | 195 | 9.0 | 18.0 | 0.00 | 0.00 | 0.00 | 86 | 1006.7 |
| 20260505123854 | 69 | 196 | 10.0 | 21.0 | 0.00 | 0.00 | 0.00 | 86 | 1006.7 |
| 20260505123817 | 69 | 224 | 11.0 | 21.0 | 0.00 | 0.00 | 0.00 | 86 | 1006.7 |
| 20260505123701 | 69 | 229 | 12.0 | 21.0 | 0.00 | 0.00 | 0.00 | 86 | 1006.7 |
| 20260505123604 | 69 | 225 | 11.0 | 21.0 | 0.00 | 0.00 | 0.00 | 86 | 1006.5 |
| 20260505123448 | 69 | 218 | 11.0 | 21.0 | 0.00 | 0.00 | 0.00 | 86 | 1006.6 |
| 20260505123411 | 69 | 238 | 10.0 | 21.0 | 0.00 | 0.00 | 0.00 | 86 | 1006.5 |
| 20260505123254 | 69 | 215 | 10.0 | 21.0 | 0.00 | 0.00 | 0.00 | 86 | 1006.5 |
| 20260505123201 | 69 | 214 | 10.0 | 21.0 | 0.00 | 0.00 | 0.00 | 86 | 1006.5 |
| 20260505123105 | 69 | 236 | 11.0 | 21.0 | 0.00 | 0.00 | 0.00 | 86 | 1006.5 |
| 20260505122949 | 69 | 225 | 10.0 | 18.0 | 0.00 | 0.00 | 0.00 | 86 | 1006.4 |
| 20260505122853 | 69 | 232 | 11.0 | 18.0 | 0.00 | 0.00 | 0.00 | 86 | 1006.4 |
| 20260505122756 | 69 | 198 | 11.0 | 18.0 | 0.00 | 0.00 | 0.00 | 86 | 1006.6 |
| 20260505122659 | 69 | 221 | 10.0 | 20.0 | 0.00 | 0.00 | 0.00 | 86 | 1006.5 |
| 20260505122548 | 69 | 221 | 10.0 | 20.0 | 0.00 | 0.00 | 0.00 | 86 | 1006.5 |
| 20260505122511 | 69 | 217 | 10.0 | 20.0 | 0.00 | 0.00 | 0.00 | 86 | 1006.5 |
| 20260505122348 | 69 | 217 | 10.0 | 19.0 | 0.00 | 0.00 | 0.00 | 86 | 1006.4 |
| 20260505122252 | 69 | 232 | 10.0 | 18.0 | 0.00 | 0.00 | 0.00 | 86 | 1006.4 |
| 20260505122214 | 69 | 207 | 10.0 | 18.0 | 0.00 | 0.00 | 0.00 | 86 | 1006.4 |
| 20260505122057 | 69 | 259 | 11.0 | 18.0 | 0.00 | 0.00 | 0.00 | 86 | 1006.4 |
| 20260505122005 | 69 | 237 | 13.0 | 18.0 | 0.00 | 0.00 | 0.00 | 86 | 1006.3 |
| 20260505121849 | 69 | 239 | 11.0 | 18.0 | 0.00 | 0.00 | 0.00 | 86 | 1006.4 |
| 20260505121752 | 69 | 211 | 10.0 | 16.0 | 0.00 | 0.00 | 0.00 | 86 | 1006.4 |
| 20260505121655 | 69 | 205 | 11.0 | 16.0 | 0.00 | 0.00 | 0.00 | 86 | 1006.3 |
| 20260505121558 | 69 | 213 | 10.0 | 16.0 | 0.00 | 0.00 | 0.00 | 86 | 1006.4 |
| 20260505121501 | 69 | 219 | 11.0 | 16.0 | 0.00 | 0.00 | 0.00 | 86 | 1006.3 |
| 20260505121349 | 69 | 234 | 13.0 | 18.0 | 0.00 | 0.00 | 0.00 | 86 | 1006.2 |
| 20260505121313 | 69 | 223 | 12.0 | 18.0 | 0.00 | 0.00 | 0.00 | 86 | 1006.2 |
| 20260505121149 | 69 | 209 | 11.0 | 20.0 | 0.00 | 0.00 | 0.00 | 86 | 1006.3 |
| 20260505121053 | 69 | 227 | 11.0 | 20.0 | 0.00 | 0.00 | 0.00 | 86 | 1006.3 |
| 20260505121017 | 69 | 215 | 10.0 | 20.0 | 0.00 | 0.00 | 0.00 | 86 | 1006.2 |
| 20260505120900 | 69 | 221 | 10.0 | 20.0 | 0.00 | 0.00 | 0.00 | 86 | 1006.3 |
| 20260505120805 | 69 | 224 | 9.0 | 20.0 | 0.00 | 0.00 | 0.00 | 86 | 1006.3 |
| 20260505120711 | 69 | 211 | 8.0 | 20.0 | 0.00 | 0.00 | 0.00 | 86 | 1006.3 |
| 20260505120553 | 69 | 206 | 8.0 | 21.0 | 0.00 | 0.00 | 0.00 | 86 | 1006.3 |
| 20260505120456 | 69 | 210 | 10.0 | 21.0 | 0.00 | 0.00 | 0.00 | 86 | 1006.4 |
| 20260505120400 | 69 | 222 | 12.0 | 21.0 | 0.00 | 0.00 | 0.00 | 86 | 1006.3 |
| 20260505120303 | 69 | 232 | 12.0 | 21.0 | 0.00 | 0.00 | 0.00 | 86 | 1006.3 |
| 20260505120227 | 69 | 218 | 9.0 | 21.0 | 0.00 | 0.00 | 0.00 | 86 | 1006.4 |
| 20260505120050 | 69 | 210 | 9.0 | 21.0 | 0.00 | 0.00 | 0.00 | 86 | 1006.3 |
| 20260505115957 | 69 | 213 | 11.0 | 21.0 | 0.00 | 0.00 | 0.00 | 86 | 1006.3 |
| 20260505115901 | 69 | 229 | 12.0 | 21.0 | 0.00 | 0.00 | 0.00 | 86 | 1006.3 |
| 20260505115825 | 69 | 225 | 13.0 | 21.0 | 0.00 | 0.00 | 0.00 | 86 | 1006.3 |
| 20260505115727 | 69 | 229 | 13.0 | 21.0 | 0.00 | 0.00 | 0.00 | 86 | 1006.3 |
| 20260505115610 | 69 | 237 | 10.0 | 19.0 | 0.00 | 0.00 | 0.00 | 86 | 1006.2 |
| 20260505115453 | 69 | 195 | 10.0 | 19.0 | 0.00 | 0.00 | 0.00 | 86 | 1006.2 |
| 20260505115416 | 69 | 209 | 10.0 | 19.0 | 0.00 | 0.00 | 0.00 | 86 | 1006.2 |
| 20260505115319 | 69 | 215 | 10.0 | 19.0 | 0.00 | 0.00 | 0.00 | 86 | 1006.3 |
| 20260505115205 | 69 | 222 | 10.0 | 19.0 | 0.00 | 0.00 | 0.00 | 86 | 1006.3 |
| 20260505115049 | 69 | 217 | 9.0 | 19.0 | 0.00 | 0.00 | 0.00 | 86 | 1006.2 |
| 20260505114953 | 69 | 222 | 10.0 | 19.0 | 0.00 | 0.00 | 0.00 | 86 | 1006.2 |
| 20260505114857 | 69 | 221 | 12.0 | 19.0 | 0.00 | 0.00 | 0.00 | 86 | 1006.2 |
| 20260505114800 | 69 | 232 | 12.0 | 19.0 | 0.00 | 0.00 | 0.00 | 86 | 1006.2 |
| 20260505114704 | 69 | 215 | 9.0 | 16.0 | 0.00 | 0.00 | 0.00 | 86 | 1006.1 |
| 20260505114612 | 69 | 225 | 9.0 | 16.0 | 0.00 | 0.00 | 0.00 | 86 | 1006.2 |
| 20260505114454 | 69 | 234 | 10.0 | 16.0 | 0.00 | 0.00 | 0.00 | 86 | 1006.2 |
| 20260505114358 | 69 | 211 | 10.0 | 16.0 | 0.00 | 0.00 | 0.00 | 86 | 1006.2 |
| 20260505114301 | 69 | 237 | 10.0 | 16.0 | 0.00 | 0.00 | 0.00 | 86 | 1006.2 |
| 20260505114205 | 69 | 222 | 10.0 | 16.0 | 0.00 | 0.00 | 0.00 | 86 | 1006.2 |
| 20260505114048 | 69 | 220 | 10.0 | 16.0 | 0.00 | 0.00 | 0.00 | 86 | 1006.1 |
| 20260505113956 | 69 | 209 | 10.0 | 16.0 | 0.00 | 0.00 | 0.00 | 86 | 1006.1 |
| 20260505113900 | 69 | 243 | 10.0 | 16.0 | 0.00 | 0.00 | 0.00 | 86 | 1006.1 |
| 20260505113805 | 69 | 201 | 10.0 | 19.0 | 0.00 | 0.00 | 0.00 | 86 | 1006.0 |
| 20260505113648 | 69 | 209 | 9.0 | 19.0 | 0.00 | 0.00 | 0.00 | 86 | 1006.1 |
| 20260505113551 | 69 | 211 | 9.0 | 19.0 | 0.00 | 0.00 | 0.00 | 86 | 1006.1 |
| 20260505113515 | 69 | 224 | 8.0 | 19.0 | 0.00 | 0.00 | 0.00 | 86 | 1006.1 |
| 20260505113358 | 69 | 228 | 8.0 | 19.0 | 0.00 | 0.00 | 0.00 | 86 | 1006.0 |
| 20260505113305 | 69 | 190 | 10.0 | 19.0 | 0.00 | 0.00 | 0.00 | 86 | 1006.0 |
| 20260505113149 | 69 | 221 | 12.0 | 19.0 | 0.00 | 0.00 | 0.00 | 86 | 1006.0 |
| 20260505113052 | 69 | 205 | 11.0 | 19.0 | 0.00 | 0.00 | 0.00 | 86 | 1006.0 |
| 20260505112956 | 69 | 207 | 10.0 | 18.0 | 0.00 | 0.00 | 0.00 | 86 | 1006.0 |
| 20260505112859 | 69 | 223 | 10.0 | 18.0 | 0.00 | 0.00 | 0.00 | 86 | 1006.0 |
| 20260505112803 | 69 | 221 | 9.0 | 18.0 | 0.00 | 0.00 | 0.00 | 86 | 1006.0 |
| 20260505112651 | 69 | 223 | 10.0 | 18.0 | 0.00 | 0.00 | 0.00 | 86 | 1006.0 |
| 20260505112554 | 69 | 236 | 9.0 | 18.0 | 0.00 | 0.00 | 0.00 | 86 | 1006.1 |
| 20260505112458 | 69 | 240 | 8.0 | 16.0 | 0.00 | 0.00 | 0.00 | 86 | 1006.2 |
| 20260505112401 | 69 | 223 | 9.0 | 17.0 | 0.00 | 0.00 | 0.00 | 86 | 1006.2 |
| 20260505112326 | 69 | 204 | 9.0 | 17.0 | 0.00 | 0.00 | 0.00 | 86 | 1006.1 |
| 20260505112149 | 69 | 222 | 10.0 | 17.0 | 0.00 | 0.00 | 0.00 | 86 | 1006.2 |
| 20260505112056 | 69 | 232 | 10.0 | 17.0 | 0.00 | 0.00 | 0.00 | 86 | 1006.2 |
| 20260505112000 | 69 | 222 | 10.0 | 17.0 | 0.00 | 0.00 | 0.00 | 86 | 1006.2 |
| 20260505111903 | 69 | 227 | 10.0 | 17.0 | 0.00 | 0.00 | 0.00 | 86 | 1006.2 |
| 20260505111807 | 69 | 202 | 11.0 | 17.0 | 0.00 | 0.00 | 0.00 | 86 | 1006.2 |
| 20260505111650 | 69 | 235 | 12.0 | 17.0 | 0.00 | 0.00 | 0.00 | 86 | 1006.2 |
| 20260505111553 | 69 | 225 | 10.0 | 17.0 | 0.00 | 0.00 | 0.00 | 86 | 1006.2 |
| 20260505111500 | 69 | 215 | 8.0 | 15.0 | 0.00 | 0.00 | 0.00 | 86 | 1006.2 |
| 20260505111404 | 69 | 211 | 8.0 | 15.0 | 0.00 | 0.00 | 0.00 | 86 | 1006.2 |
| 20260505111248 | 69 | 213 | 8.0 | 14.0 | 0.00 | 0.00 | 0.00 | 86 | 1006.2 |
| 20260505111211 | 69 | 208 | 9.0 | 14.0 | 0.00 | 0.00 | 0.00 | 86 | 1006.2 |
| 20260505111054 | 69 | 217 | 9.0 | 15.0 | 0.00 | 0.00 | 0.00 | 86 | 1006.2 |
| 20260505110957 | 69 | 225 | 8.0 | 19.0 | 0.00 | 0.00 | 0.00 | 86 | 1006.1 |
| 20260505110905 | 69 | 238 | 8.0 | 19.0 | 0.00 | 0.00 | 0.00 | 86 | 1006.2 |
| 20260505110748 | 69 | 203 | 8.0 | 19.0 | 0.00 | 0.00 | 0.00 | 86 | 1006.3 |
| 20260505110653 | 69 | 214 | 8.0 | 19.0 | 0.00 | 0.00 | 0.00 | 86 | 1006.3 |
| 20260505110557 | 69 | 225 | 9.0 | 19.0 | 0.00 | 0.00 | 0.00 | 86 | 1006.3 |
| 20260505110501 | 69 | 235 | 11.0 | 19.0 | 0.00 | 0.00 | 0.00 | 86 | 1006.2 |
| 20260505110405 | 69 | 225 | 12.0 | 19.0 | 0.00 | 0.00 | 0.00 | 86 | 1006.2 |
| 20260505110253 | 69 | 209 | 11.0 | 19.0 | 0.00 | 0.00 | 0.00 | 87 | 1006.3 |
| 20260505110217 | 69 | 199 | 10.0 | 19.0 | 0.00 | 0.00 | 0.00 | 87 | 1006.3 |